Wetterdaten: Dienstag, 17.11.2020
Datum Zeit Temp. Aussen Temp. o. S. Temp +5cm Feuchte Auss Luftdruck Regen Sonnenschein Regendauer Solar Windben Empfang
17.11.2020 00:00 9,8 C 9,4 C 8,9 C 93 % 1021,8 hPa 0,0 l/m 0 min 0 min 0 W/m 25,7 km/h (4 Bft) 97,87 %
17.11.2020 00:02 9,8 C 9,4 C 8,9 C 93 % 1021,8 hPa 0,0 l/m 0 min 0 min 0 W/m 25,7 km/h (4 Bft) 93,94 %
17.11.2020 00:04 9,8 C 9,4 C 8,9 C 93 % 1021,8 hPa 0,0 l/m 0 min 0 min 0 W/m 29,0 km/h (5 Bft) 100,00 %
17.11.2020 00:08 9,8 C 9,4 C 8,9 C 93 % 1021,8 hPa 0,0 l/m 0 min 0 min 0 W/m 35,4 km/h (5 Bft) 100,00 %
17.11.2020 00:10 9,9 C 9,4 C 8,9 C 93 % 1021,9 hPa 0,0 l/m 0 min 0 min 0 W/m 25,7 km/h (4 Bft) 100,00 %
17.11.2020 00:12 9,9 C 9,4 C 8,9 C 93 % 1021,9 hPa 0,0 l/m 0 min 0 min 0 W/m 29,0 km/h (5 Bft) 100,00 %
17.11.2020 00:14 9,9 C 9,4 C 8,9 C 93 % 1021,8 hPa 0,0 l/m 0 min 0 min 0 W/m 16,1 km/h (3 Bft) 100,00 %
17.11.2020 00:16 9,9 C 9,4 C 8,9 C 93 % 1021,8 hPa 0,0 l/m 0 min 0 min 0 W/m 29,0 km/h (5 Bft) 100,00 %
17.11.2020 00:18 9,9 C 9,4 C 8,9 C 93 % 1021,9 hPa 0,0 l/m 0 min 0 min 0 W/m 35,4 km/h (5 Bft) 95,74 %
17.11.2020 00:20 9,9 C 9,4 C 8,9 C 93 % 1021,9 hPa 0,0 l/m 0 min 0 min 0 W/m 32,2 km/h (5 Bft) 100,00 %
17.11.2020 00:22 9,9 C 9,4 C 8,9 C 93 % 1021,9 hPa 0,0 l/m 0 min 0 min 0 W/m 35,4 km/h (5 Bft) 97,87 %
17.11.2020 00:24 9,9 C 9,4 C 8,9 C 93 % 1021,9 hPa 0,0 l/m 0 min 0 min 0 W/m 29,0 km/h (5 Bft) 95,74 %
17.11.2020 00:26 10,0 C 9,4 C 8,9 C 93 % 1021,9 hPa 0,0 l/m 0 min 0 min 0 W/m 29,0 km/h (5 Bft) 97,83 %
17.11.2020 00:28 10,0 C 9,4 C 8,9 C 93 % 1021,9 hPa 0,0 l/m 0 min 0 min 0 W/m 32,2 km/h (5 Bft) 97,87 %
17.11.2020 00:30 10,0 C 9,4 C 8,9 C 93 % 1021,9 hPa 0,0 l/m 0 min 0 min 0 W/m 29,0 km/h (5 Bft) 97,87 %
17.11.2020 00:32 10,0 C 9,4 C 8,9 C 93 % 1021,8 hPa 0,0 l/m 0 min 0 min 0 W/m 22,5 km/h (4 Bft) 98,11 %
17.11.2020 00:34 10,0 C 9,4 C 8,9 C 93 % 1021,8 hPa 0,0 l/m 0 min 0 min 0 W/m 25,7 km/h (4 Bft) 100,00 %
17.11.2020 00:36 10,0 C 9,4 C 8,9 C 93 % 1021,9 hPa 0,0 l/m 0 min 0 min 0 W/m 35,4 km/h (5 Bft) 97,83 %
17.11.2020 00:38 10,0 C 9,4 C 8,9 C 93 % 1021,9 hPa 0,0 l/m 0 min 0 min 0 W/m 29,0 km/h (5 Bft) 97,87 %
17.11.2020 00:40 10,0 C 9,4 C 8,9 C 93 % 1021,8 hPa 0,0 l/m 0 min 0 min 0 W/m 29,0 km/h (5 Bft) 97,87 %
17.11.2020 00:42 10,0 C 9,4 C 8,9 C 93 % 1021,8 hPa 0,0 l/m 0 min 0 min 0 W/m 29,0 km/h (5 Bft) 97,87 %
17.11.2020 00:44 10,0 C 9,4 C 8,9 C 93 % 1021,8 hPa 0,0 l/m 0 min 0 min 0 W/m 38,6 km/h (5 Bft) 97,87 %
17.11.2020 00:46 10,1 C 9,4 C 8,9 C 93 % 1021,8 hPa 0,0 l/m 0 min 0 min 0 W/m 35,4 km/h (5 Bft) 97,56 %
17.11.2020 00:48 10,1 C 9,4 C 8,9 C 93 % 1021,9 hPa 0,0 l/m 0 min 0 min 0 W/m 35,4 km/h (5 Bft) 97,87 %
17.11.2020 00:50 10,1 C 9,4 C 8,9 C 93 % 1021,8 hPa 0,0 l/m 0 min 0 min 0 W/m 32,2 km/h (5 Bft) 97,83 %
17.11.2020 00:52 10,1 C 9,4 C 8,9 C 93 % 1021,8 hPa 0,0 l/m 0 min 0 min 0 W/m 32,2 km/h (5 Bft) 97,87 %
17.11.2020 00:54 10,1 C 9,4 C 8,9 C 93 % 1021,9 hPa 0,0 l/m 0 min 0 min 0 W/m 41,8 km/h (6 Bft) 96,23 %
17.11.2020 00:56 10,1 C 9,4 C 8,9 C 93 % 1021,9 hPa 0,0 l/m 0 min 0 min 0 W/m 25,7 km/h (4 Bft) 95,74 %
17.11.2020 00:58 10,1 C 9,4 C 8,9 C 93 % 1021,9 hPa 0,0 l/m 0 min 0 min 0 W/m 35,4 km/h (5 Bft) 97,87 %
17.11.2020 01:00 10,2 C 9,4 C 8,9 C 92 % 1021,9 hPa 0,0 l/m 0 min 0 min 0 W/m 22,5 km/h (4 Bft) 97,83 %
17.11.2020 01:02 10,2 C 10,0 C 9,5 C 92 % 1022,0 hPa 0,0 l/m 0 min 0 min 0 W/m 48,3 km/h (6 Bft) 97,92 %
17.11.2020 01:04 10,2 C 9,4 C 9,5 C 92 % 1021,9 hPa 0,0 l/m 0 min 0 min 0 W/m 29,0 km/h (5 Bft) 97,87 %
17.11.2020 01:06 10,2 C 9,4 C 9,5 C 92 % 1021,9 hPa 0,0 l/m 0 min 0 min 0 W/m 32,2 km/h (5 Bft) 97,87 %
17.11.2020 01:08 10,2 C 9,4 C 9,5 C 92 % 1021,8 hPa 0,0 l/m 0 min 0 min 0 W/m 25,7 km/h (4 Bft) 100,00 %
17.11.2020 01:10 10,3 C 9,4 C 9,5 C 92 % 1021,9 hPa 0,0 l/m 0 min 0 min 0 W/m 22,5 km/h (4 Bft) 95,74 %
17.11.2020 01:12 10,3 C 10,0 C 9,5 C 92 % 1022,0 hPa 0,0 l/m 0 min 0 min 0 W/m 35,4 km/h (5 Bft) 97,83 %
17.11.2020 01:14 10,3 C 10,0 C 9,5 C 92 % 1021,9 hPa 0,0 l/m 0 min 0 min 0 W/m 25,7 km/h (4 Bft) 44,74 %
17.11.2020 01:16 10,3 C 10,0 C 9,5 C 92 % 1021,9 hPa 0,0 l/m 0 min 0 min 0 W/m 19,3 km/h (3 Bft) 95,74 %
17.11.2020 01:18 10,3 C 10,0 C 9,5 C 92 % 1021,8 hPa 0,0 l/m 0 min 0 min 0 W/m 35,4 km/h (5 Bft) 95,74 %
17.11.2020 01:20 10,3 C 10,0 C 9,5 C 92 % 1021,9 hPa 0,0 l/m 0 min 0 min 0 W/m 32,2 km/h (5 Bft) 95,74 %
17.11.2020 01:22 10,3 C 10,0 C 9,5 C 92 % 1022,0 hPa 0,0 l/m 0 min 0 min 0 W/m 41,8 km/h (6 Bft) 95,65 %
17.11.2020 01:24 10,3 C 10,0 C 9,5 C 92 % 1021,9 hPa 0,0 l/m 0 min 0 min 0 W/m 29,0 km/h (5 Bft) 95,74 %
17.11.2020 01:26 10,4 C 10,0 C 9,5 C 92 % 1021,9 hPa 0,0 l/m 0 min 0 min 0 W/m 38,6 km/h (5 Bft) 93,62 %
17.11.2020 01:28 10,4 C 10,0 C 9,5 C 92 % 1021,9 hPa 0,0 l/m 0 min 0 min 0 W/m 29,0 km/h (5 Bft) 97,87 %
17.11.2020 01:30 10,4 C 10,0 C 9,5 C 92 % 1021,9 hPa 0,0 l/m 0 min 0 min 0 W/m 25,7 km/h (4 Bft) 95,74 %
17.11.2020 01:32 10,4 C 10,0 C 9,5 C 92 % 1021,9 hPa 0,0 l/m 0 min 0 min 0 W/m 35,4 km/h (5 Bft) 97,92 %
17.11.2020 01:34 10,4 C 10,0 C 9,5 C 92 % 1021,9 hPa 0,0 l/m 0 min 0 min 0 W/m 22,5 km/h (4 Bft) 95,65 %
17.11.2020 01:36 10,4 C 10,0 C 9,5 C 92 % 1021,9 hPa 0,0 l/m 0 min 0 min 0 W/m 29,0 km/h (5 Bft) 95,74 %
17.11.2020 01:38 10,4 C 10,0 C 9,5 C 92 % 1021,9 hPa 0,0 l/m 0 min 0 min 0 W/m 32,2 km/h (5 Bft) 97,87 %
17.11.2020 01:40 10,4 C 10,0 C 9,5 C 92 % 1021,9 hPa 0,0 l/m 0 min 0 min 0 W/m 22,5 km/h (4 Bft) 95,74 %
17.11.2020 01:42 10,4 C 10,0 C 9,5 C 93 % 1021,9 hPa 0,0 l/m 0 min 0 min 0 W/m 16,1 km/h (3 Bft) 93,62 %
17.11.2020 01:44 10,4 C 10,0 C 9,5 C 93 % 1022,0 hPa 0,0 l/m 0 min 0 min 0 W/m 29,0 km/h (5 Bft) 97,87 %
17.11.2020 01:46 10,4 C 10,0 C 9,5 C 93 % 1022,0 hPa 0,0 l/m 0 min 0 min 0 W/m 29,0 km/h (5 Bft) 95,65 %
17.11.2020 01:48 10,4 C 10,0 C 9,5 C 93 % 1022,1 hPa 0,0 l/m 0 min 0 min 0 W/m 25,7 km/h (4 Bft) 97,87 %
17.11.2020 01:50 10,4 C 10,0 C 9,5 C 93 % 1022,0 hPa 0,0 l/m 0 min 0 min 0 W/m 29,0 km/h (5 Bft) 97,44 %
17.11.2020 01:52 10,4 C 10,0 C 9,5 C 93 % 1022,0 hPa 0,0 l/m 0 min 0 min 0 W/m 32,2 km/h (5 Bft) 97,87 %
17.11.2020 01:54 10,4 C 10,0 C 9,5 C 93 % 1022,0 hPa 0,0 l/m 0 min 0 min 0 W/m 32,2 km/h (5 Bft) 97,87 %
17.11.2020 01:56 10,4 C 10,0 C 9,5 C 93 % 1021,9 hPa 0,0 l/m 0 min 0 min 0 W/m 32,2 km/h (5 Bft) 97,87 %
17.11.2020 01:58 10,4 C 10,0 C 9,5 C 93 % 1021,9 hPa 0,0 l/m 0 min 0 min 0 W/m 32,2 km/h (5 Bft) 95,74 %
17.11.2020 02:00 10,4 C 10,0 C 9,5 C 93 % 1022,0 hPa 0,0 l/m 0 min 0 min 0 W/m 29,0 km/h (5 Bft) 97,83 %
17.11.2020 02:02 10,4 C 10,0 C 9,5 C 93 % 1022,0 hPa 0,0 l/m 0 min 0 min 0 W/m 6,4 km/h (2 Bft) 100,00 %
17.11.2020 02:04 10,4 C 10,0 C 9,5 C 93 % 1021,9 hPa 0,0 l/m 0 min 0 min 0 W/m 25,7 km/h (4 Bft) 95,74 %
17.11.2020 02:06 10,4 C 10,0 C 9,5 C 93 % 1021,9 hPa 0,0 l/m 0 min 0 min 0 W/m 16,1 km/h (3 Bft) 97,87 %
17.11.2020 02:08 10,4 C 10,0 C 9,5 C 93 % 1021,9 hPa 0,0 l/m 0 min 0 min 0 W/m 19,3 km/h (3 Bft) 100,00 %
17.11.2020 02:10 10,4 C 10,0 C 9,5 C 93 % 1022,0 hPa 0,0 l/m 0 min 0 min 0 W/m 22,5 km/h (4 Bft) 100,00 %
17.11.2020 02:12 10,4 C 10,0 C 9,5 C 93 % 1022,0 hPa 0,0 l/m 0 min 0 min 0 W/m 19,3 km/h (3 Bft) 97,83 %
17.11.2020 02:14 10,4 C 10,0 C 9,5 C 93 % 1022,0 hPa 0,0 l/m 0 min 0 min 0 W/m 22,5 km/h (4 Bft) 97,87 %
17.11.2020 02:16 10,4 C 10,0 C 9,5 C 93 % 1021,9 hPa 0,0 l/m 0 min 0 min 0 W/m 16,1 km/h (3 Bft) 97,87 %
17.11.2020 02:18 10,4 C 10,0 C 9,5 C 93 % 1022,0 hPa 0,0 l/m 0 min 0 min 0 W/m 19,3 km/h (3 Bft) 97,87 %
17.11.2020 02:20 10,4 C 10,0 C 9,5 C 93 % 1022,0 hPa 0,0 l/m 0 min 0 min 0 W/m 25,7 km/h (4 Bft) 93,62 %
17.11.2020 02:22 10,4 C 10,0 C 9,5 C 94 % 1022,0 hPa 0,0 l/m 0 min 0 min 0 W/m 35,4 km/h (5 Bft) 97,87 %
17.11.2020 02:24 10,4 C 10,0 C 9,5 C 94 % 1022,0 hPa 0,0 l/m 0 min 0 min 0 W/m 32,2 km/h (5 Bft) 97,83 %
17.11.2020 02:26 10,4 C 10,0 C 9,5 C 94 % 1022,0 hPa 0,0 l/m 0 min 0 min 0 W/m 16,1 km/h (3 Bft) 97,87 %
17.11.2020 02:28 10,4 C 10,0 C 9,5 C 94 % 1022,0 hPa 0,0 l/m 0 min 0 min 0 W/m 0,0 km/h (0 Bft) 97,87 %
17.11.2020 02:30 10,4 C 10,0 C 9,5 C 94 % 1022,0 hPa 0,0 l/m 0 min 0 min 0 W/m 0,0 km/h (0 Bft) 97,87 %
17.11.2020 02:32 10,4 C 10,0 C 9,5 C 94 % 1022,0 hPa 0,0 l/m 0 min 0 min 0 W/m 19,3 km/h (3 Bft) 95,74 %
17.11.2020 02:34 10,4 C 10,0 C 9,5 C 94 % 1022,0 hPa 0,0 l/m 0 min 0 min 0 W/m 22,5 km/h (4 Bft) 97,87 %
17.11.2020 02:36 10,4 C 10,0 C 9,5 C 94 % 1022,0 hPa 0,0 l/m 0 min 0 min 0 W/m 6,4 km/h (2 Bft) 95,65 %
17.11.2020 02:38 10,4 C 10,0 C 9,5 C 94 % 1021,9 hPa 0,0 l/m 0 min 0 min 0 W/m 3,2 km/h (1 Bft) 98,31 %
17.11.2020 02:40 10,4 C 10,0 C 9,5 C 94 % 1021,9 hPa 0,0 l/m 0 min 0 min 0 W/m 12,9 km/h (3 Bft) 97,14 %
17.11.2020 02:42 10,4 C 10,0 C 9,5 C 94 % 1021,9 hPa 0,0 l/m 0 min 0 min 0 W/m 22,5 km/h (4 Bft) 97,87 %
17.11.2020 02:44 10,4 C 10,0 C 9,5 C 94 % 1021,9 hPa 0,0 l/m 0 min 0 min 0 W/m 22,5 km/h (4 Bft) 97,87 %
17.11.2020 02:46 10,4 C 10,0 C 9,5 C 94 % 1021,9 hPa 0,0 l/m 0 min 0 min 0 W/m 12,9 km/h (3 Bft) 97,83 %
17.11.2020 02:48 10,4 C 10,0 C 9,5 C 94 % 1021,9 hPa 0,0 l/m 0 min 0 min 0 W/m 22,5 km/h (4 Bft) 95,74 %
17.11.2020 02:50 10,4 C 10,0 C 9,5 C 94 % 1021,8 hPa 0,0 l/m 0 min 0 min 0 W/m 3,2 km/h (1 Bft) 97,87 %
17.11.2020 02:52 10,4 C 10,0 C 9,5 C 94 % 1021,7 hPa 0,0 l/m 0 min 0 min 0 W/m 16,1 km/h (3 Bft) 97,87 %
17.11.2020 02:54 10,4 C 10,0 C 9,5 C 94 % 1021,6 hPa 0,0 l/m 0 min 0 min 0 W/m 19,3 km/h (3 Bft) 97,87 %
17.11.2020 02:56 10,4 C 10,0 C 9,5 C 94 % 1021,7 hPa 0,0 l/m 0 min 0 min 0 W/m 12,9 km/h (3 Bft) 97,87 %
17.11.2020 02:58 10,4 C 10,0 C 9,5 C 94 % 1021,7 hPa 0,0 l/m 0 min 0 min 0 W/m 12,9 km/h (3 Bft) 97,87 %
17.11.2020 03:00 10,4 C 10,0 C 9,5 C 94 % 1021,7 hPa 0,0 l/m 0 min 0 min 0 W/m 19,3 km/h (3 Bft) 97,83 %
17.11.2020 03:02 10,4 C 10,0 C 9,5 C 94 % 1021,7 hPa 0,0 l/m 0 min 0 min 0 W/m 16,1 km/h (3 Bft) 97,87 %
17.11.2020 03:04 10,4 C 10,0 C 9,5 C 93 % 1021,7 hPa 0,0 l/m 0 min 0 min 0 W/m 16,1 km/h (3 Bft) 100,00 %
17.11.2020 03:06 10,4 C 10,0 C 9,5 C 93 % 1021,7 hPa 0,0 l/m 0 min 0 min 0 W/m 12,9 km/h (3 Bft) 100,00 %
17.11.2020 03:08 10,4 C 10,0 C 9,5 C 93 % 1021,7 hPa 0,0 l/m 0 min 0 min 0 W/m 22,5 km/h (4 Bft) 100,00 %
17.11.2020 03:10 10,4 C 10,0 C 9,5 C 93 % 1021,7 hPa 0,0 l/m 0 min 0 min 0 W/m 22,5 km/h (4 Bft) 100,00 %
17.11.2020 03:12 10,4 C 10,0 C 9,5 C 93 % 1021,6 hPa 0,0 l/m 0 min 0 min 0 W/m 25,7 km/h (4 Bft) 100,00 %
17.11.2020 03:14 10,5 C 10,0 C 9,5 C 93 % 1021,6 hPa 0,0 l/m 0 min 0 min 0 W/m 16,1 km/h (3 Bft) 97,87 %
17.11.2020 03:16 10,5 C 10,0 C 9,5 C 93 % 1021,7 hPa 0,0 l/m 0 min 0 min 0 W/m 41,8 km/h (6 Bft) 100,00 %
17.11.2020 03:18 10,5 C 10,0 C 9,5 C 93 % 1021,6 hPa 0,0 l/m 0 min 0 min 0 W/m 19,3 km/h (3 Bft) 100,00 %
17.11.2020 03:20 10,5 C 10,0 C 9,5 C 93 % 1021,6 hPa 0,0 l/m 0 min 0 min 0 W/m 16,1 km/h (3 Bft) 100,00 %
17.11.2020 03:22 10,5 C 10,0 C 9,5 C 93 % 1021,5 hPa 0,0 l/m 0 min 0 min 0 W/m 19,3 km/h (3 Bft) 100,00 %
17.11.2020 03:24 10,5 C 10,0 C 9,5 C 93 % 1021,5 hPa 0,0 l/m 0 min 0 min 0 W/m 16,1 km/h (3 Bft) 100,00 %
17.11.2020 03:26 10,5 C 10,0 C 9,5 C 93 % 1021,6 hPa 0,0 l/m 0 min 0 min 0 W/m 22,5 km/h (4 Bft) 100,00 %
17.11.2020 03:28 10,5 C 10,0 C 9,5 C 93 % 1021,5 hPa 0,0 l/m 0 min 0 min 0 W/m 19,3 km/h (3 Bft) 100,00 %
17.11.2020 03:30 10,5 C 10,0 C 9,5 C 93 % 1021,5 hPa 0,0 l/m 0 min 0 min 0 W/m 19,3 km/h (3 Bft) 100,00 %
17.11.2020 03:32 10,5 C 10,0 C 9,5 C 93 % 1021,5 hPa 0,0 l/m 0 min 0 min 0 W/m 19,3 km/h (3 Bft) 100,00 %
17.11.2020 03:34 10,5 C 10,0 C 9,5 C 93 % 1021,5 hPa 0,0 l/m 0 min 0 min 0 W/m 35,4 km/h (5 Bft) 100,00 %
17.11.2020 03:36 10,6 C 10,0 C 9,5 C 92 % 1021,5 hPa 0,0 l/m 0 min 0 min 0 W/m 22,5 km/h (4 Bft) 97,87 %
17.11.2020 03:38 10,6 C 10,0 C 9,5 C 92 % 1021,7 hPa 0,0 l/m 0 min 0 min 0 W/m 19,3 km/h (3 Bft) 100,00 %
17.11.2020 03:40 10,6 C 10,0 C 9,5 C 92 % 1021,6 hPa 0,0 l/m 0 min 0 min 0 W/m 38,6 km/h (5 Bft) 100,00 %
17.11.2020 03:42 10,6 C 10,0 C 9,5 C 92 % 1021,6 hPa 0,0 l/m 0 min 0 min 0 W/m 45,1 km/h (6 Bft) 100,00 %
17.11.2020 03:44 10,6 C 10,0 C 9,5 C 92 % 1021,5 hPa 0,0 l/m 0 min 0 min 0 W/m 25,7 km/h (4 Bft) 100,00 %
17.11.2020 03:46 10,6 C 10,0 C 9,5 C 92 % 1021,5 hPa 0,0 l/m 0 min 0 min 0 W/m 19,3 km/h (3 Bft) 100,00 %
17.11.2020 03:48 10,6 C 10,0 C 9,5 C 92 % 1021,5 hPa 0,0 l/m 0 min 0 min 0 W/m 29,0 km/h (5 Bft) 100,00 %
17.11.2020 03:50 10,6 C 10,0 C 9,5 C 92 % 1021,4 hPa 0,0 l/m 0 min 0 min 0 W/m 16,1 km/h (3 Bft) 100,00 %
17.11.2020 03:52 10,6 C 10,0 C 9,5 C 92 % 1021,4 hPa 0,0 l/m 0 min 0 min 0 W/m 35,4 km/h (5 Bft) 97,87 %
17.11.2020 03:54 10,7 C 10,0 C 9,5 C 92 % 1021,4 hPa 0,0 l/m 0 min 0 min 0 W/m 29,0 km/h (5 Bft) 100,00 %
17.11.2020 03:56 10,6 C 10,0 C 9,5 C 91 % 1021,4 hPa 0,0 l/m 0 min 0 min 0 W/m 29,0 km/h (5 Bft) 97,83 %
17.11.2020 03:58 10,7 C 10,0 C 9,5 C 91 % 1021,4 hPa 0,0 l/m 0 min 0 min 0 W/m 32,2 km/h (5 Bft) 97,87 %
17.11.2020 04:00 10,7 C 10,0 C 9,5 C 91 % 1021,4 hPa 0,0 l/m 0 min 0 min 0 W/m 22,5 km/h (4 Bft) 97,87 %
17.11.2020 04:02 10,7 C 10,0 C 9,5 C 91 % 1021,5 hPa 0,0 l/m 0 min 0 min 0 W/m 16,1 km/h (3 Bft) 100,00 %
17.11.2020 04:04 10,7 C 10,0 C 9,5 C 91 % 1021,4 hPa 0,0 l/m 0 min 0 min 0 W/m 16,1 km/h (3 Bft) 91,49 %
17.11.2020 04:06 10,7 C 10,0 C 9,5 C 91 % 1021,5 hPa 0,0 l/m 0 min 0 min 0 W/m 19,3 km/h (3 Bft) 95,65 %
17.11.2020 04:08 10,7 C 10,0 C 9,5 C 91 % 1021,5 hPa 0,0 l/m 0 min 0 min 0 W/m 29,0 km/h (5 Bft) 97,87 %
17.11.2020 04:10 10,7 C 10,0 C 9,5 C 91 % 1021,5 hPa 0,0 l/m 0 min 0 min 0 W/m 19,3 km/h (3 Bft) 95,74 %
17.11.2020 04:12 10,8 C 10,0 C 9,5 C 91 % 1021,5 hPa 0,0 l/m 0 min 0 min 0 W/m 6,4 km/h (2 Bft) 95,74 %
17.11.2020 04:14 10,8 C 10,0 C 9,5 C 91 % 1021,4 hPa 0,0 l/m 0 min 0 min 0 W/m 22,5 km/h (4 Bft) 95,74 %
17.11.2020 04:16 10,8 C 10,6 C 9,5 C 91 % 1021,4 hPa 0,0 l/m 0 min 0 min 0 W/m 25,7 km/h (4 Bft) 93,62 %
17.11.2020 04:18 10,8 C 10,6 C 9,5 C 91 % 1021,5 hPa 0,0 l/m 0 min 0 min 0 W/m 38,6 km/h (5 Bft) 95,65 %
17.11.2020 04:20 10,8 C 10,0 C 9,5 C 91 % 1021,5 hPa 0,0 l/m 0 min 0 min 0 W/m 19,3 km/h (3 Bft) 95,74 %
17.11.2020 04:22 10,8 C 10,0 C 9,5 C 91 % 1021,6 hPa 0,0 l/m 0 min 0 min 0 W/m 25,7 km/h (4 Bft) 93,62 %
17.11.2020 04:24 10,8 C 10,6 C 9,5 C 91 % 1021,5 hPa 0,0 l/m 0 min 0 min 0 W/m 19,3 km/h (3 Bft) 95,74 %
17.11.2020 04:26 10,8 C 10,6 C 9,5 C 91 % 1021,4 hPa 0,0 l/m 0 min 0 min 0 W/m 19,3 km/h (3 Bft) 95,74 %
17.11.2020 04:28 10,8 C 10,0 C 9,5 C 91 % 1021,4 hPa 0,0 l/m 0 min 0 min 0 W/m 22,5 km/h (4 Bft) 95,74 %
17.11.2020 04:30 10,8 C 10,0 C 9,5 C 91 % 1021,6 hPa 0,0 l/m 0 min 0 min 0 W/m 19,3 km/h (3 Bft) 95,65 %
17.11.2020 04:32 10,8 C 10,0 C 9,5 C 90 % 1021,5 hPa 0,0 l/m 0 min 0 min 0 W/m 16,1 km/h (3 Bft) 95,74 %
17.11.2020 04:34 10,8 C 10,0 C 9,5 C 90 % 1021,5 hPa 0,0 l/m 0 min 0 min 0 W/m 19,3 km/h (3 Bft) 95,74 %
17.11.2020 04:36 10,8 C 10,6 C 9,5 C 90 % 1021,7 hPa 0,0 l/m 0 min 0 min 0 W/m 32,2 km/h (5 Bft) 95,74 %
17.11.2020 04:38 10,8 C 10,6 C 9,5 C 90 % 1021,6 hPa 0,0 l/m 0 min 0 min 0 W/m 32,2 km/h (5 Bft) 95,74 %
17.11.2020 04:40 10,9 C 10,6 C 9,5 C 90 % 1021,5 hPa 0,0 l/m 0 min 0 min 0 W/m 6,4 km/h (2 Bft) 93,48 %
17.11.2020 04:42 10,9 C 10,6 C 9,5 C 90 % 1021,6 hPa 0,0 l/m 0 min 0 min 0 W/m 29,0 km/h (5 Bft) 97,87 %
17.11.2020 04:44 10,8 C 10,0 C 9,5 C 90 % 1021,6 hPa 0,0 l/m 0 min 0 min 0 W/m 12,9 km/h (3 Bft) 97,87 %
17.11.2020 04:46 10,9 C 10,0 C 9,5 C 90 % 1021,6 hPa 0,0 l/m 0 min 0 min 0 W/m 12,9 km/h (3 Bft) 97,87 %
17.11.2020 04:48 10,9 C 10,0 C 9,5 C 90 % 1021,7 hPa 0,0 l/m 0 min 0 min 0 W/m 38,6 km/h (5 Bft) 97,87 %
17.11.2020 04:50 10,9 C 10,0 C 9,5 C 90 % 1021,6 hPa 0,0 l/m 0 min 2 min 0 W/m 25,7 km/h (4 Bft) 97,87 %
17.11.2020 04:52 10,9 C 10,0 C 9,5 C 90 % 1021,6 hPa 0,0 l/m 0 min 2 min 0 W/m 19,3 km/h (3 Bft) 95,65 %
17.11.2020 04:54 10,9 C 9,4 C 9,5 C 90 % 1021,7 hPa 0,0 l/m 0 min 2 min 0 W/m 25,7 km/h (4 Bft) 97,37 %
17.11.2020 04:56 10,9 C 9,4 C 9,5 C 90 % 1021,6 hPa 0,0 l/m 0 min 2 min 0 W/m 29,0 km/h (5 Bft) 95,65 %
17.11.2020 04:58 10,9 C 9,4 C 8,9 C 91 % 1021,7 hPa 0,0 l/m 0 min 2 min 0 W/m 35,4 km/h (5 Bft) 95,74 %
17.11.2020 05:00 10,9 C 9,4 C 8,9 C 91 % 1021,7 hPa 0,0 l/m 0 min 2 min 0 W/m 22,5 km/h (4 Bft) 97,87 %
17.11.2020 05:02 10,9 C 9,4 C 8,9 C 91 % 1021,6 hPa 0,0 l/m 0 min 2 min 0 W/m 6,4 km/h (2 Bft) 96,30 %
17.11.2020 05:04 10,9 C 10,0 C 8,9 C 91 % 1021,6 hPa 0,0 l/m 0 min 2 min 0 W/m 19,3 km/h (3 Bft) 97,87 %
17.11.2020 05:06 10,8 C 10,0 C 8,9 C 91 % 1021,6 hPa 0,0 l/m 0 min 2 min 0 W/m 32,2 km/h (5 Bft) 97,83 %
17.11.2020 05:08 10,8 C 10,0 C 8,9 C 91 % 1021,6 hPa 0,0 l/m 0 min 2 min 0 W/m 22,5 km/h (4 Bft) 95,74 %
17.11.2020 05:10 10,8 C 10,0 C 9,5 C 91 % 1021,6 hPa 0,0 l/m 0 min 0 min 0 W/m 29,0 km/h (5 Bft) 100,00 %
17.11.2020 05:12 10,8 C 10,0 C 9,5 C 91 % 1021,7 hPa 0,0 l/m 0 min 0 min 0 W/m 41,8 km/h (6 Bft) 97,87 %
17.11.2020 05:14 10,8 C 10,0 C 9,5 C 91 % 1021,6 hPa 0,0 l/m 0 min 0 min 0 W/m 22,5 km/h (4 Bft) 95,74 %
17.11.2020 05:16 10,8 C 10,0 C 9,5 C 91 % 1021,6 hPa 0,0 l/m 0 min 0 min 0 W/m 38,6 km/h (5 Bft) 95,65 %
17.11.2020 05:18 10,8 C 10,0 C 9,5 C 91 % 1021,7 hPa 0,0 l/m 0 min 0 min 0 W/m 19,3 km/h (3 Bft) 97,87 %
17.11.2020 05:20 10,8 C 9,4 C 8,9 C 92 % 1021,6 hPa 0,0 l/m 0 min 0 min 0 W/m 29,0 km/h (5 Bft) 93,62 %
17.11.2020 05:22 10,8 C 9,4 C 8,9 C 92 % 1021,7 hPa 0,0 l/m 0 min 0 min 0 W/m 29,0 km/h (5 Bft) 95,74 %
17.11.2020 05:24 10,7 C 10,0 C 9,5 C 92 % 1021,8 hPa 0,0 l/m 0 min 0 min 0 W/m 41,8 km/h (6 Bft) 97,87 %
17.11.2020 05:26 10,7 C 10,0 C 9,5 C 92 % 1021,8 hPa 0,0 l/m 0 min 0 min 0 W/m 57,9 km/h (7 Bft) 91,49 %
17.11.2020 05:28 10,7 C 10,0 C 9,5 C 92 % 1021,8 hPa 0,0 l/m 0 min 0 min 0 W/m 35,4 km/h (5 Bft) 97,83 %
17.11.2020 05:30 10,7 C 10,0 C 9,5 C 92 % 1021,7 hPa 0,0 l/m 0 min 0 min 0 W/m 19,3 km/h (3 Bft) 97,87 %
17.11.2020 05:32 10,7 C 10,0 C 9,5 C 92 % 1021,8 hPa 0,0 l/m 0 min 0 min 0 W/m 29,0 km/h (5 Bft) 53,49 %
17.11.2020 05:34 10,7 C 10,0 C 9,5 C 92 % 1021,8 hPa 0,0 l/m 0 min 0 min 0 W/m 29,0 km/h (5 Bft) 95,74 %
17.11.2020 05:36 10,7 C 10,0 C 9,5 C 92 % 1021,9 hPa 0,0 l/m 0 min 0 min 0 W/m 35,4 km/h (5 Bft) 97,87 %
17.11.2020 05:38 10,7 C 10,0 C 9,5 C 92 % 1021,8 hPa 0,0 l/m 0 min 0 min 0 W/m 22,5 km/h (4 Bft) 97,87 %
17.11.2020 05:40 10,7 C 10,0 C 9,5 C 92 % 1021,8 hPa 0,0 l/m 0 min 0 min 0 W/m 45,1 km/h (6 Bft) 97,83 %
17.11.2020 05:42 10,7 C 10,0 C 9,5 C 92 % 1021,9 hPa 0,0 l/m 0 min 0 min 0 W/m 29,0 km/h (5 Bft) 97,87 %
17.11.2020 05:44 10,6 C 10,0 C 9,5 C 92 % 1021,8 hPa 0,0 l/m 0 min 0 min 0 W/m 29,0 km/h (5 Bft) 97,87 %
17.11.2020 05:46 10,7 C 10,0 C 9,5 C 92 % 1021,9 hPa 0,0 l/m 0 min 0 min 0 W/m 35,4 km/h (5 Bft) 95,74 %
17.11.2020 05:48 10,6 C 10,0 C 9,5 C 92 % 1021,9 hPa 0,0 l/m 0 min 0 min 0 W/m 29,0 km/h (5 Bft) 97,87 %
17.11.2020 05:50 10,6 C 10,0 C 9,5 C 93 % 1021,9 hPa 0,0 l/m 0 min 0 min 0 W/m 41,8 km/h (6 Bft) 97,83 %
17.11.2020 05:52 10,6 C 10,0 C 9,5 C 93 % 1021,9 hPa 0,0 l/m 0 min 0 min 0 W/m 22,5 km/h (4 Bft) 97,87 %
17.11.2020 05:54 10,6 C 10,0 C 9,5 C 93 % 1022,0 hPa 0,0 l/m 0 min 0 min 0 W/m 32,2 km/h (5 Bft) 97,87 %
17.11.2020 05:56 10,7 C 10,0 C 9,5 C 93 % 1022,0 hPa 0,0 l/m 0 min 0 min 0 W/m 45,1 km/h (6 Bft) 98,00 %
17.11.2020 05:58 10,7 C 10,0 C 9,5 C 93 % 1022,0 hPa 0,0 l/m 0 min 0 min 0 W/m 32,2 km/h (5 Bft) 100,00 %
17.11.2020 06:00 10,7 C 10,0 C 9,5 C 93 % 1021,9 hPa 0,0 l/m 0 min 0 min 0 W/m 48,3 km/h (6 Bft) 100,00 %
17.11.2020 06:02 10,7 C 10,0 C 9,5 C 93 % 1021,9 hPa 0,0 l/m 0 min 0 min 0 W/m 38,6 km/h (5 Bft) 100,00 %
17.11.2020 06:04 10,7 C 10,0 C 9,5 C 93 % 1022,0 hPa 0,0 l/m 0 min 0 min 0 W/m 35,4 km/h (5 Bft) 100,00 %
17.11.2020 06:08 10,8 C 10,0 C 9,5 C 93 % 1022,0 hPa 0,0 l/m 0 min 0 min 0 W/m 35,4 km/h (5 Bft) 100,00 %
17.11.2020 06:10 10,8 C 10,0 C 9,5 C 93 % 1022,1 hPa 0,0 l/m 0 min 0 min 0 W/m 41,8 km/h (6 Bft) 100,00 %
17.11.2020 06:12 10,8 C 10,0 C 9,5 C 92 % 1022,1 hPa 0,0 l/m 0 min 0 min 0 W/m 41,8 km/h (6 Bft) 97,87 %
17.11.2020 06:14 10,8 C 10,0 C 9,5 C 92 % 1022,0 hPa 0,0 l/m 0 min 0 min 0 W/m 25,7 km/h (4 Bft) 100,00 %
17.11.2020 06:16 10,8 C 10,0 C 9,5 C 92 % 1022,0 hPa 0,0 l/m 0 min 0 min 0 W/m 38,6 km/h (5 Bft) 100,00 %
17.11.2020 06:18 10,8 C 10,0 C 9,5 C 92 % 1022,0 hPa 0,0 l/m 0 min 0 min 0 W/m 22,5 km/h (4 Bft) 100,00 %
17.11.2020 06:20 10,8 C 10,0 C 9,5 C 92 % 1022,1 hPa 0,0 l/m 0 min 0 min 0 W/m 35,4 km/h (5 Bft) 100,00 %
17.11.2020 06:22 10,8 C 10,0 C 9,5 C 92 % 1022,0 hPa 0,0 l/m 0 min 0 min 0 W/m 35,4 km/h (5 Bft) 100,00 %
17.11.2020 06:24 10,8 C 10,0 C 9,5 C 92 % 1022,0 hPa 0,0 l/m 0 min 0 min 0 W/m 35,4 km/h (5 Bft) 100,00 %
17.11.2020 06:26 10,8 C 10,0 C 9,5 C 93 % 1022,0 hPa 0,0 l/m 0 min 0 min 0 W/m 22,5 km/h (4 Bft) 97,83 %
17.11.2020 06:28 10,8 C 10,0 C 9,5 C 93 % 1022,2 hPa 0,0 l/m 0 min 0 min 0 W/m 29,0 km/h (5 Bft) 97,87 %
17.11.2020 06:30 10,8 C 10,0 C 9,5 C 93 % 1022,1 hPa 0,0 l/m 0 min 0 min 0 W/m 25,7 km/h (4 Bft) 97,87 %
17.11.2020 06:32 10,8 C 10,6 C 9,5 C 93 % 1022,1 hPa 0,0 l/m 0 min 0 min 0 W/m 22,5 km/h (4 Bft) 100,00 %
17.11.2020 06:34 10,8 C 10,6 C 9,5 C 93 % 1022,1 hPa 0,0 l/m 0 min 0 min 0 W/m 16,1 km/h (3 Bft) 100,00 %
17.11.2020 06:36 10,8 C 10,6 C 10,0 C 92 % 1022,2 hPa 0,0 l/m 0 min 0 min 0 W/m 41,8 km/h (6 Bft) 100,00 %
17.11.2020 06:38 10,8 C 10,6 C 10,0 C 92 % 1022,3 hPa 0,0 l/m 0 min 0 min 0 W/m 29,0 km/h (5 Bft) 100,00 %
17.11.2020 06:40 10,8 C 10,6 C 10,0 C 92 % 1022,3 hPa 0,0 l/m 0 min 0 min 0 W/m 32,2 km/h (5 Bft) 95,74 %
17.11.2020 06:42 10,9 C 10,6 C 10,0 C 92 % 1022,1 hPa 0,0 l/m 0 min 0 min 0 W/m 32,2 km/h (5 Bft) 97,87 %
17.11.2020 06:44 10,9 C 10,6 C 10,0 C 92 % 1022,2 hPa 0,0 l/m 0 min 0 min 0 W/m 41,8 km/h (6 Bft) 97,87 %
17.11.2020 06:46 10,9 C 10,6 C 10,0 C 92 % 1022,2 hPa 0,0 l/m 0 min 0 min 0 W/m 38,6 km/h (5 Bft) 97,87 %
17.11.2020 06:48 10,9 C 10,6 C 10,0 C 92 % 1022,2 hPa 0,0 l/m 0 min 0 min 0 W/m 32,2 km/h (5 Bft) 97,83 %
17.11.2020 06:50 10,9 C 10,6 C 10,0 C 92 % 1022,2 hPa 0,0 l/m 0 min 0 min 0 W/m 35,4 km/h (5 Bft) 97,87 %
17.11.2020 06:52 11,0 C 10,6 C 10,0 C 92 % 1022,3 hPa 0,0 l/m 0 min 0 min 0 W/m 41,8 km/h (6 Bft) 97,87 %
17.11.2020 06:54 11,0 C 10,6 C 10,0 C 92 % 1022,2 hPa 0,0 l/m 0 min 0 min 0 W/m 32,2 km/h (5 Bft) 97,87 %
17.11.2020 06:56 11,0 C 10,6 C 10,0 C 92 % 1022,2 hPa 0,0 l/m 0 min 0 min 0 W/m 32,2 km/h (5 Bft) 97,87 %
17.11.2020 06:58 11,0 C 10,6 C 10,0 C 92 % 1022,2 hPa 0,0 l/m 0 min 0 min 0 W/m 22,5 km/h (4 Bft) 93,62 %
17.11.2020 07:00 11,0 C 10,6 C 10,0 C 92 % 1022,4 hPa 0,0 l/m 0 min 0 min 0 W/m 25,7 km/h (4 Bft) 97,83 %
17.11.2020 07:02 11,0 C 10,6 C 10,0 C 91 % 1022,3 hPa 0,0 l/m 0 min 0 min 0 W/m 29,0 km/h (5 Bft) 97,92 %
17.11.2020 07:04 11,1 C 10,6 C 10,0 C 91 % 1022,2 hPa 0,0 l/m 0 min 0 min 0 W/m 25,7 km/h (4 Bft) 97,87 %
17.11.2020 07:06 11,1 C 10,6 C 10,0 C 91 % 1022,3 hPa 0,0 l/m 0 min 0 min 0 W/m 25,7 km/h (4 Bft) 97,87 %
17.11.2020 07:08 11,1 C 10,6 C 10,0 C 91 % 1022,3 hPa 0,0 l/m 0 min 0 min 0 W/m 29,0 km/h (5 Bft) 97,87 %
17.11.2020 07:10 11,1 C 10,6 C 10,0 C 91 % 1022,3 hPa 0,0 l/m 0 min 0 min 0 W/m 32,2 km/h (5 Bft) 97,87 %
17.11.2020 07:12 11,1 C 10,6 C 10,0 C 91 % 1022,4 hPa 0,0 l/m 0 min 0 min 0 W/m 25,7 km/h (4 Bft) 97,83 %
17.11.2020 07:14 11,1 C 10,6 C 10,0 C 91 % 1022,6 hPa 0,0 l/m 0 min 0 min 0 W/m 45,1 km/h (6 Bft) 95,74 %
17.11.2020 07:16 11,1 C 10,6 C 10,0 C 91 % 1022,4 hPa 0,0 l/m 0 min 0 min 0 W/m 29,0 km/h (5 Bft) 97,87 %
17.11.2020 07:18 11,1 C 10,6 C 10,0 C 91 % 1022,4 hPa 0,0 l/m 0 min 0 min 0 W/m 29,0 km/h (5 Bft) 97,87 %
17.11.2020 07:20 11,1 C 10,6 C 10,0 C 91 % 1022,4 hPa 0,0 l/m 0 min 0 min 0 W/m 41,8 km/h (6 Bft) 97,87 %
17.11.2020 07:22 11,1 C 10,6 C 10,0 C 92 % 1022,4 hPa 0,0 l/m 0 min 0 min 0 W/m 22,5 km/h (4 Bft) 97,83 %
17.11.2020 07:24 11,1 C 10,6 C 10,0 C 92 % 1022,4 hPa 0,0 l/m 0 min 0 min 0 W/m 22,5 km/h (4 Bft) 100,00 %
17.11.2020 07:26 11,1 C 10,6 C 10,0 C 92 % 1022,5 hPa 0,0 l/m 0 min 0 min 0 W/m 35,4 km/h (5 Bft) 97,87 %
17.11.2020 07:28 11,1 C 10,6 C 10,0 C 92 % 1022,4 hPa 0,0 l/m 0 min 0 min 0 W/m 32,2 km/h (5 Bft) 100,00 %
17.11.2020 07:30 11,1 C 10,6 C 10,0 C 92 % 1022,5 hPa 0,0 l/m 0 min 0 min 0 W/m 35,4 km/h (5 Bft) 97,87 %
17.11.2020 07:32 11,2 C 10,6 C 10,0 C 92 % 1022,4 hPa 0,0 l/m 0 min 0 min 0 W/m 29,0 km/h (5 Bft) 97,87 %
17.11.2020 07:34 11,2 C 10,6 C 10,0 C 92 % 1022,3 hPa 0,0 l/m 0 min 0 min 0 W/m 25,7 km/h (4 Bft) 97,83 %
17.11.2020 07:36 11,2 C 10,6 C 10,0 C 92 % 1022,5 hPa 0,0 l/m 0 min 0 min 0 W/m 29,0 km/h (5 Bft) 97,87 %
17.11.2020 07:38 11,2 C 10,6 C 10,0 C 92 % 1022,4 hPa 0,0 l/m 0 min 0 min 0 W/m 29,0 km/h (5 Bft) 100,00 %
17.11.2020 07:40 11,2 C 10,6 C 10,0 C 92 % 1022,3 hPa 0,0 l/m 0 min 0 min 0 W/m 29,0 km/h (5 Bft) 97,87 %
17.11.2020 07:42 11,2 C 10,6 C 10,0 C 92 % 1022,4 hPa 0,0 l/m 0 min 0 min 0 W/m 35,4 km/h (5 Bft) 97,87 %
17.11.2020 07:44 11,3 C 10,6 C 10,0 C 92 % 1022,5 hPa 0,0 l/m 0 min 0 min 0 W/m 22,5 km/h (4 Bft) 100,00 %
17.11.2020 07:46 11,3 C 10,6 C 10,0 C 92 % 1022,6 hPa 0,0 l/m 0 min 0 min 0 W/m 41,8 km/h (6 Bft) 100,00 %
17.11.2020 07:48 11,3 C 10,6 C 10,0 C 92 % 1022,6 hPa 0,0 l/m 0 min 0 min 0 W/m 25,7 km/h (4 Bft) 95,74 %
17.11.2020 07:50 11,3 C 10,6 C 10,0 C 92 % 1022,7 hPa 0,0 l/m 0 min 0 min 0 W/m 41,8 km/h (6 Bft) 95,74 %
17.11.2020 07:52 11,3 C 10,6 C 10,0 C 92 % 1022,7 hPa 0,0 l/m 0 min 0 min 0 W/m 22,5 km/h (4 Bft) 95,74 %
17.11.2020 07:54 11,3 C 10,6 C 10,0 C 92 % 1022,8 hPa 0,0 l/m 0 min 0 min 0 W/m 29,0 km/h (5 Bft) 97,87 %
17.11.2020 07:56 11,3 C 10,6 C 10,0 C 92 % 1022,7 hPa 0,0 l/m 0 min 0 min 0 W/m 25,7 km/h (4 Bft) 95,74 %
17.11.2020 07:58 11,3 C 10,6 C 10,0 C 92 % 1022,8 hPa 0,0 l/m 0 min 0 min 0 W/m 32,2 km/h (5 Bft) 97,37 %
17.11.2020 08:00 11,3 C 10,6 C 10,0 C 92 % 1022,8 hPa 0,0 l/m 0 min 0 min 0 W/m 22,5 km/h (4 Bft) 95,65 %
17.11.2020 08:02 11,3 C 10,6 C 10,0 C 92 % 1022,7 hPa 0,0 l/m 0 min 0 min 0 W/m 38,6 km/h (5 Bft) 98,18 %
17.11.2020 08:04 11,3 C 10,6 C 10,0 C 92 % 1022,8 hPa 0,0 l/m 0 min 0 min 0 W/m 19,3 km/h (3 Bft) 97,87 %
17.11.2020 08:06 11,3 C 10,6 C 10,0 C 92 % 1022,7 hPa 0,0 l/m 0 min 0 min 0 W/m 16,1 km/h (3 Bft) 95,74 %
17.11.2020 08:08 11,3 C 10,6 C 10,0 C 92 % 1022,7 hPa 0,0 l/m 0 min 0 min 0 W/m 22,5 km/h (4 Bft) 93,62 %
17.11.2020 08:10 11,3 C 10,6 C 10,0 C 92 % 1022,8 hPa 0,0 l/m 0 min 0 min 4 W/m 32,2 km/h (5 Bft) 95,65 %
17.11.2020 08:12 11,3 C 10,6 C 10,0 C 92 % 1022,8 hPa 0,0 l/m 0 min 0 min 5 W/m 38,6 km/h (5 Bft) 95,74 %
17.11.2020 08:14 11,3 C 10,6 C 10,0 C 92 % 1022,8 hPa 0,0 l/m 0 min 0 min 6 W/m 25,7 km/h (4 Bft) 95,74 %
17.11.2020 08:16 11,3 C 10,6 C 10,0 C 92 % 1022,8 hPa 0,0 l/m 0 min 0 min 7 W/m 38,6 km/h (5 Bft) 93,62 %
17.11.2020 08:18 11,3 C 11,1 C 10,0 C 92 % 1023,0 hPa 0,0 l/m 0 min 0 min 7 W/m 41,8 km/h (6 Bft) 95,74 %
17.11.2020 08:20 11,4 C 11,1 C 10,0 C 92 % 1023,1 hPa 0,0 l/m 0 min 0 min 7 W/m 38,6 km/h (5 Bft) 95,74 %
17.11.2020 08:22 11,4 C 11,1 C 10,0 C 92 % 1023,0 hPa 0,0 l/m 0 min 0 min 7 W/m 32,2 km/h (5 Bft) 95,65 %
17.11.2020 08:24 11,4 C 10,6 C 10,0 C 92 % 1023,0 hPa 0,0 l/m 0 min 0 min 9 W/m 25,7 km/h (4 Bft) 95,74 %
17.11.2020 08:26 11,4 C 11,1 C 10,0 C 92 % 1022,9 hPa 0,0 l/m 0 min 0 min 9 W/m 32,2 km/h (5 Bft) 95,74 %
17.11.2020 08:28 11,4 C 11,1 C 10,0 C 92 % 1023,0 hPa 0,0 l/m 0 min 0 min 10 W/m 25,7 km/h (4 Bft) 93,62 %
17.11.2020 08:30 11,4 C 11,1 C 10,0 C 92 % 1023,1 hPa 0,0 l/m 0 min 0 min 10 W/m 32,2 km/h (5 Bft) 95,74 %
17.11.2020 08:32 11,4 C 11,1 C 10,0 C 92 % 1023,1 hPa 0,0 l/m 0 min 0 min 10 W/m 22,5 km/h (4 Bft) 93,62 %
17.11.2020 08:34 11,4 C 11,1 C 10,0 C 92 % 1023,1 hPa 0,0 l/m 0 min 0 min 11 W/m 29,0 km/h (5 Bft) 95,74 %
17.11.2020 08:36 11,4 C 11,1 C 10,0 C 92 % 1023,1 hPa 0,0 l/m 0 min 0 min 11 W/m 29,0 km/h (5 Bft) 95,74 %
17.11.2020 08:38 11,4 C 11,1 C 10,6 C 92 % 1023,2 hPa 0,0 l/m 0 min 0 min 11 W/m 16,1 km/h (3 Bft) 95,74 %
17.11.2020 08:40 11,4 C 11,1 C 10,6 C 92 % 1023,3 hPa 0,0 l/m 0 min 0 min 11 W/m 32,2 km/h (5 Bft) 95,74 %
17.11.2020 08:42 11,4 C 11,1 C 10,6 C 92 % 1023,3 hPa 0,0 l/m 0 min 0 min 11 W/m 35,4 km/h (5 Bft) 95,74 %
17.11.2020 08:44 11,5 C 11,1 C 10,6 C 91 % 1023,4 hPa 0,0 l/m 0 min 0 min 11 W/m 32,2 km/h (5 Bft) 95,65 %
17.11.2020 08:46 11,5 C 11,1 C 10,6 C 91 % 1023,4 hPa 0,0 l/m 0 min 0 min 12 W/m 6,4 km/h (2 Bft) 95,74 %
17.11.2020 08:48 11,5 C 11,1 C 10,6 C 91 % 1023,4 hPa 0,0 l/m 0 min 0 min 12 W/m 35,4 km/h (5 Bft) 91,49 %
17.11.2020 08:50 11,5 C 11,1 C 10,6 C 92 % 1023,4 hPa 0,0 l/m 0 min 0 min 14 W/m 16,1 km/h (3 Bft) 95,74 %
17.11.2020 08:52 11,5 C 11,1 C 10,6 C 92 % 1023,4 hPa 0,0 l/m 0 min 0 min 16 W/m 29,0 km/h (5 Bft) 97,87 %
17.11.2020 08:54 11,5 C 11,1 C 10,6 C 92 % 1023,4 hPa 0,0 l/m 0 min 0 min 17 W/m 25,7 km/h (4 Bft) 97,87 %
17.11.2020 08:56 11,5 C 11,1 C 10,6 C 92 % 1023,4 hPa 0,0 l/m 0 min 0 min 18 W/m 25,7 km/h (4 Bft) 97,83 %
17.11.2020 08:58 11,5 C 11,1 C 10,6 C 92 % 1023,4 hPa 0,0 l/m 0 min 0 min 21 W/m 25,7 km/h (4 Bft) 100,00 %
17.11.2020 09:00 11,5 C 11,1 C 10,6 C 92 % 1023,4 hPa 0,0 l/m 0 min 0 min 22 W/m 25,7 km/h (4 Bft) 97,37 %
17.11.2020 09:02 11,6 C 11,1 C 10,6 C 91 % 1023,4 hPa 0,0 l/m 0 min 0 min 22 W/m 35,4 km/h (5 Bft) 100,00 %
17.11.2020 09:04 11,6 C 11,1 C 10,6 C 91 % 1023,4 hPa 0,0 l/m 0 min 0 min 25 W/m 29,0 km/h (5 Bft) 100,00 %
17.11.2020 09:06 11,6 C 11,1 C 10,6 C 91 % 1023,5 hPa 0,0 l/m 0 min 0 min 25 W/m 35,4 km/h (5 Bft) 100,00 %
17.11.2020 09:08 11,6 C 11,1 C 10,6 C 91 % 1023,5 hPa 0,0 l/m 0 min 0 min 25 W/m 22,5 km/h (4 Bft) 97,83 %
17.11.2020 09:10 11,6 C 11,1 C 10,6 C 91 % 1023,5 hPa 0,0 l/m 0 min 0 min 31 W/m 32,2 km/h (5 Bft) 97,87 %
17.11.2020 09:12 11,6 C 11,1 C 10,6 C 91 % 1023,4 hPa 0,0 l/m 0 min 0 min 34 W/m 29,0 km/h (5 Bft) 100,00 %
17.11.2020 09:14 11,7 C 11,1 C 10,6 C 91 % 1023,5 hPa 0,0 l/m 0 min 0 min 37 W/m 32,2 km/h (5 Bft) 100,00 %
17.11.2020 09:16 11,7 C 11,1 C 10,6 C 91 % 1023,6 hPa 0,0 l/m 0 min 0 min 32 W/m 19,3 km/h (3 Bft) 100,00 %
17.11.2020 09:18 11,7 C 11,1 C 10,6 C 91 % 1023,6 hPa 0,0 l/m 0 min 0 min 31 W/m 22,5 km/h (4 Bft) 100,00 %
17.11.2020 09:20 11,7 C 11,1 C 10,6 C 91 % 1023,7 hPa 0,0 l/m 0 min 0 min 28 W/m 19,3 km/h (3 Bft) 95,74 %
17.11.2020 09:22 11,8 C 11,1 C 10,6 C 91 % 1023,7 hPa 0,0 l/m 0 min 0 min 27 W/m 29,0 km/h (5 Bft) 97,83 %
17.11.2020 09:24 11,8 C 11,1 C 10,6 C 91 % 1023,8 hPa 0,0 l/m 0 min 0 min 28 W/m 6,4 km/h (2 Bft) 97,87 %
17.11.2020 09:26 11,8 C 11,1 C 10,6 C 91 % 1023,8 hPa 0,0 l/m 0 min 0 min 32 W/m 29,0 km/h (5 Bft) 97,87 %
17.11.2020 09:28 11,8 C 11,1 C 10,6 C 91 % 1023,7 hPa 0,0 l/m 0 min 0 min 34 W/m 25,7 km/h (4 Bft) 97,87 %
17.11.2020 09:30 11,8 C 11,1 C 10,6 C 91 % 1023,7 hPa 0,0 l/m 0 min 0 min 35 W/m 29,0 km/h (5 Bft) 97,87 %
17.11.2020 09:32 11,8 C 11,1 C 10,6 C 91 % 1023,7 hPa 0,0 l/m 0 min 0 min 37 W/m 22,5 km/h (4 Bft) 96,23 %
17.11.2020 09:34 11,8 C 11,7 C 10,6 C 91 % 1023,6 hPa 0,0 l/m 0 min 0 min 37 W/m 22,5 km/h (4 Bft) 95,74 %
17.11.2020 09:36 11,8 C 11,7 C 10,6 C 91 % 1023,7 hPa 0,0 l/m 0 min 0 min 35 W/m 45,1 km/h (6 Bft) 97,87 %
17.11.2020 09:38 11,9 C 11,7 C 10,6 C 91 % 1023,7 hPa 0,0 l/m 0 min 0 min 33 W/m 25,7 km/h (4 Bft) 97,87 %
17.11.2020 09:40 11,9 C 11,7 C 10,6 C 91 % 1023,7 hPa 0,0 l/m 0 min 0 min 33 W/m 22,5 km/h (4 Bft) 97,87 %
17.11.2020 09:42 11,9 C 11,7 C 10,6 C 91 % 1023,8 hPa 0,0 l/m 0 min 0 min 33 W/m 16,1 km/h (3 Bft) 97,83 %
17.11.2020 09:44 11,9 C 11,7 C 10,6 C 91 % 1023,8 hPa 0,0 l/m 0 min 0 min 32 W/m 19,3 km/h (3 Bft) 97,87 %
17.11.2020 09:46 11,9 C 11,7 C 10,6 C 91 % 1023,7 hPa 0,0 l/m 0 min 0 min 31 W/m 35,4 km/h (5 Bft) 95,74 %
17.11.2020 09:48 11,9 C 11,7 C 10,6 C 91 % 1023,8 hPa 0,0 l/m 0 min 0 min 33 W/m 16,1 km/h (3 Bft) 97,87 %
17.11.2020 09:50 11,9 C 11,7 C 10,6 C 91 % 1023,7 hPa 0,0 l/m 0 min 0 min 41 W/m 19,3 km/h (3 Bft) 97,87 %
17.11.2020 09:52 11,9 C 11,7 C 10,6 C 91 % 1023,7 hPa 0,0 l/m 0 min 0 min 40 W/m 38,6 km/h (5 Bft) 95,74 %
17.11.2020 09:54 11,9 C 11,7 C 10,6 C 91 % 1023,8 hPa 0,0 l/m 0 min 0 min 39 W/m 16,1 km/h (3 Bft) 97,83 %
17.11.2020 09:56 11,9 C 11,7 C 10,6 C 91 % 1023,8 hPa 0,0 l/m 0 min 0 min 39 W/m 22,5 km/h (4 Bft) 97,92 %
17.11.2020 09:58 11,9 C 11,7 C 10,6 C 91 % 1023,8 hPa 0,0 l/m 0 min 0 min 35 W/m 38,6 km/h (5 Bft) 97,83 %
17.11.2020 10:00 12,0 C 11,7 C 10,6 C 91 % 1023,8 hPa 0,0 l/m 0 min 0 min 33 W/m 22,5 km/h (4 Bft) 97,87 %
17.11.2020 10:03 12,0 C 11,7 C 10,6 C 91 % 1023,9 hPa 0,0 l/m 0 min 0 min 32 W/m 19,3 km/h (3 Bft) 94,29 %
17.11.2020 10:04 12,0 C 11,7 C 10,6 C 91 % 1023,9 hPa 0,0 l/m 0 min 0 min 35 W/m 0,0 km/h (0 Bft) 100,00 %
17.11.2020 10:06 12,0 C 11,7 C 10,6 C 91 % 1023,8 hPa 0,0 l/m 0 min 0 min 39 W/m 16,1 km/h (3 Bft) 100,00 %
17.11.2020 10:08 12,0 C 11,7 C 11,1 C 91 % 1023,8 hPa 0,0 l/m 0 min 0 min 39 W/m 19,3 km/h (3 Bft) 97,87 %
17.11.2020 10:10 12,0 C 11,7 C 11,1 C 91 % 1023,8 hPa 0,0 l/m 0 min 0 min 41 W/m 25,7 km/h (4 Bft) 100,00 %
17.11.2020 10:12 12,0 C 11,7 C 11,1 C 91 % 1023,8 hPa 0,0 l/m 0 min 0 min 46 W/m 22,5 km/h (4 Bft) 100,00 %
17.11.2020 10:14 12,0 C 11,7 C 11,1 C 91 % 1023,8 hPa 0,0 l/m 0 min 0 min 57 W/m 35,4 km/h (5 Bft) 97,87 %
17.11.2020 10:16 12,0 C 11,7 C 11,1 C 91 % 1023,9 hPa 0,0 l/m 0 min 0 min 67 W/m 19,3 km/h (3 Bft) 100,00 %
17.11.2020 10:18 12,0 C 11,7 C 11,1 C 91 % 1023,9 hPa 0,0 l/m 0 min 0 min 76 W/m 19,3 km/h (3 Bft) 55,56 %
17.11.2020 10:20 12,1 C 11,7 C 11,1 C 91 % 1023,9 hPa 0,0 l/m 0 min 0 min 76 W/m 25,7 km/h (4 Bft) 100,00 %
17.11.2020 10:22 12,1 C 11,7 C 11,1 C 91 % 1024,0 hPa 0,0 l/m 0 min 0 min 64 W/m 35,4 km/h (5 Bft) 100,00 %
17.11.2020 10:24 12,1 C 11,7 C 11,1 C 91 % 1024,0 hPa 0,0 l/m 0 min 0 min 66 W/m 35,4 km/h (5 Bft) 100,00 %
17.11.2020 10:26 12,1 C 11,7 C 11,1 C 91 % 1024,0 hPa 0,0 l/m 0 min 0 min 54 W/m 29,0 km/h (5 Bft) 100,00 %
17.11.2020 10:28 12,1 C 11,7 C 11,1 C 91 % 1024,0 hPa 0,0 l/m 0 min 0 min 47 W/m 19,3 km/h (3 Bft) 100,00 %
17.11.2020 10:30 12,1 C 11,7 C 11,1 C 91 % 1024,0 hPa 0,0 l/m 0 min 0 min 48 W/m 35,4 km/h (5 Bft) 100,00 %
17.11.2020 10:32 12,2 C 11,7 C 11,1 C 90 % 1024,1 hPa 0,0 l/m 0 min 0 min 52 W/m 29,0 km/h (5 Bft) 100,00 %
17.11.2020 10:34 12,2 C 11,7 C 11,1 C 90 % 1024,0 hPa 0,0 l/m 0 min 0 min 66 W/m 29,0 km/h (5 Bft) 100,00 %
17.11.2020 10:36 12,2 C 11,7 C 11,1 C 90 % 1024,0 hPa 0,0 l/m 0 min 0 min 80 W/m 32,2 km/h (5 Bft) 95,74 %
17.11.2020 10:38 12,2 C 11,7 C 11,1 C 90 % 1024,0 hPa 0,0 l/m 0 min 0 min 87 W/m 32,2 km/h (5 Bft) 100,00 %
17.11.2020 10:40 12,2 C 11,7 C 11,1 C 90 % 1024,1 hPa 0,0 l/m 0 min 0 min 75 W/m 12,9 km/h (3 Bft) 100,00 %
17.11.2020 10:42 12,3 C 11,7 C 11,1 C 90 % 1024,2 hPa 0,0 l/m 0 min 0 min 67 W/m 22,5 km/h (4 Bft) 97,83 %
17.11.2020 10:44 12,3 C 11,7 C 11,1 C 90 % 1024,2 hPa 0,0 l/m 0 min 0 min 70 W/m 22,5 km/h (4 Bft) 100,00 %
17.11.2020 10:46 12,3 C 11,7 C 11,1 C 90 % 1024,2 hPa 0,0 l/m 0 min 0 min 55 W/m 3,2 km/h (1 Bft) 100,00 %
17.11.2020 10:48 12,3 C 11,7 C 11,1 C 90 % 1024,2 hPa 0,0 l/m 0 min 0 min 55 W/m 25,7 km/h (4 Bft) 100,00 %
17.11.2020 10:50 12,3 C 11,7 C 11,1 C 90 % 1024,2 hPa 0,0 l/m 0 min 0 min 54 W/m 29,0 km/h (5 Bft) 100,00 %
17.11.2020 10:52 12,3 C 11,7 C 11,1 C 90 % 1024,3 hPa 0,0 l/m 0 min 0 min 68 W/m 19,3 km/h (3 Bft) 97,83 %
17.11.2020 10:54 12,3 C 11,7 C 11,1 C 90 % 1024,3 hPa 0,0 l/m 0 min 0 min 64 W/m 29,0 km/h (5 Bft) 100,00 %
17.11.2020 10:56 12,3 C 11,7 C 11,1 C 90 % 1024,3 hPa 0,0 l/m 0 min 0 min 53 W/m 32,2 km/h (5 Bft) 100,00 %
17.11.2020 10:58 12,3 C 11,7 C 11,1 C 90 % 1024,3 hPa 0,0 l/m 0 min 0 min 50 W/m 32,2 km/h (5 Bft) 100,00 %
17.11.2020 11:00 12,3 C 11,7 C 11,1 C 90 % 1024,3 hPa 0,0 l/m 0 min 0 min 53 W/m 25,7 km/h (4 Bft) 100,00 %
17.11.2020 11:02 12,4 C 11,7 C 11,1 C 90 % 1024,3 hPa 0,0 l/m 0 min 0 min 56 W/m 25,7 km/h (4 Bft) 97,92 %
17.11.2020 11:04 12,4 C 11,7 C 11,1 C 90 % 1024,3 hPa 0,0 l/m 0 min 0 min 55 W/m 45,1 km/h (6 Bft) 100,00 %
17.11.2020 11:06 12,4 C 12,2 C 11,1 C 90 % 1024,4 hPa 0,0 l/m 0 min 0 min 57 W/m 32,2 km/h (5 Bft) 100,00 %
17.11.2020 11:08 12,4 C 12,2 C 11,1 C 90 % 1024,4 hPa 0,0 l/m 0 min 0 min 63 W/m 35,4 km/h (5 Bft) 97,87 %
17.11.2020 11:10 12,4 C 12,2 C 11,1 C 90 % 1024,4 hPa 0,0 l/m 0 min 0 min 63 W/m 22,5 km/h (4 Bft) 100,00 %
17.11.2020 11:12 12,4 C 12,2 C 11,1 C 90 % 1024,5 hPa 0,0 l/m 0 min 0 min 57 W/m 12,9 km/h (3 Bft) 97,87 %
17.11.2020 11:14 12,4 C 12,2 C 11,1 C 90 % 1024,5 hPa 0,0 l/m 0 min 0 min 61 W/m 9,7 km/h (2 Bft) 95,74 %
17.11.2020 11:16 12,4 C 12,2 C 11,7 C 90 % 1024,6 hPa 0,0 l/m 0 min 0 min 76 W/m 29,0 km/h (5 Bft) 95,65 %
17.11.2020 11:18 12,4 C 12,2 C 11,7 C 90 % 1024,5 hPa 0,0 l/m 0 min 0 min 71 W/m 32,2 km/h (5 Bft) 100,00 %
17.11.2020 11:20 12,4 C 12,2 C 11,7 C 90 % 1024,4 hPa 0,0 l/m 0 min 0 min 70 W/m 32,2 km/h (5 Bft) 97,87 %
17.11.2020 11:22 12,4 C 12,2 C 11,7 C 90 % 1024,4 hPa 0,0 l/m 0 min 0 min 71 W/m 35,4 km/h (5 Bft) 95,74 %
17.11.2020 11:24 12,5 C 12,2 C 11,1 C 90 % 1024,6 hPa 0,0 l/m 0 min 0 min 66 W/m 45,1 km/h (6 Bft) 95,74 %
17.11.2020 11:26 12,5 C 12,2 C 11,1 C 90 % 1024,6 hPa 0,0 l/m 0 min 0 min 62 W/m 41,8 km/h (6 Bft) 93,62 %
17.11.2020 11:28 12,5 C 12,2 C 11,1 C 90 % 1024,6 hPa 0,0 l/m 0 min 0 min 66 W/m 29,0 km/h (5 Bft) 95,65 %
17.11.2020 11:30 12,5 C 12,2 C 11,7 C 90 % 1024,6 hPa 0,0 l/m 0 min 0 min 69 W/m 29,0 km/h (5 Bft) 95,74 %
17.11.2020 11:32 12,5 C 12,2 C 11,1 C 90 % 1024,6 hPa 0,0 l/m 0 min 0 min 70 W/m 41,8 km/h (6 Bft) 95,83 %
17.11.2020 11:34 12,5 C 12,2 C 11,1 C 89 % 1024,7 hPa 0,0 l/m 0 min 0 min 71 W/m 29,0 km/h (5 Bft) 95,74 %
17.11.2020 11:36 12,5 C 12,2 C 11,7 C 89 % 1024,7 hPa 0,0 l/m 0 min 0 min 75 W/m 19,3 km/h (3 Bft) 95,74 %
17.11.2020 11:38 12,5 C 12,2 C 11,1 C 89 % 1024,7 hPa 0,0 l/m 0 min 0 min 62 W/m 38,6 km/h (5 Bft) 97,78 %
17.11.2020 11:40 12,5 C 12,2 C 11,1 C 89 % 1024,7 hPa 0,0 l/m 0 min 0 min 56 W/m 25,7 km/h (4 Bft) 95,74 %
17.11.2020 11:42 12,5 C 12,2 C 11,1 C 89 % 1024,7 hPa 0,0 l/m 0 min 0 min 51 W/m 16,1 km/h (3 Bft) 93,62 %
17.11.2020 11:44 12,5 C 12,2 C 11,1 C 89 % 1024,8 hPa 0,0 l/m 0 min 0 min 52 W/m 25,7 km/h (4 Bft) 93,62 %
17.11.2020 11:46 12,5 C 12,2 C 11,1 C 89 % 1024,8 hPa 0,0 l/m 0 min 0 min 47 W/m 25,7 km/h (4 Bft) 95,74 %
17.11.2020 11:48 12,5 C 12,2 C 11,1 C 89 % 1024,7 hPa 0,0 l/m 0 min 0 min 48 W/m 25,7 km/h (4 Bft) 97,87 %
17.11.2020 11:50 12,5 C 12,2 C 11,1 C 89 % 1024,7 hPa 0,0 l/m 0 min 0 min 46 W/m 29,0 km/h (5 Bft) 95,65 %
17.11.2020 11:52 12,5 C 11,7 C 11,1 C 89 % 1024,7 hPa 0,0 l/m 0 min 0 min 39 W/m 25,7 km/h (4 Bft) 91,49 %
17.11.2020 11:54 12,5 C 11,7 C 11,1 C 89 % 1024,7 hPa 0,0 l/m 0 min 0 min 36 W/m 35,4 km/h (5 Bft) 95,74 %
17.11.2020 11:56 12,5 C 11,7 C 11,1 C 89 % 1024,7 hPa 0,0 l/m 0 min 0 min 38 W/m 25,7 km/h (4 Bft) 95,74 %
17.11.2020 11:58 12,5 C 11,7 C 11,1 C 89 % 1024,7 hPa 0,0 l/m 0 min 0 min 37 W/m 22,5 km/h (4 Bft) 93,62 %
17.11.2020 12:00 12,5 C 11,7 C 11,1 C 89 % 1024,7 hPa 0,0 l/m 0 min 0 min 33 W/m 19,3 km/h (3 Bft) 91,49 %
17.11.2020 12:02 12,5 C 11,7 C 11,1 C 89 % 1024,7 hPa 0,0 l/m 0 min 0 min 33 W/m 48,3 km/h (6 Bft) 93,48 %
17.11.2020 12:04 12,5 C 11,7 C 11,1 C 89 % 1024,6 hPa 0,0 l/m 0 min 0 min 32 W/m 19,3 km/h (3 Bft) 94,59 %
17.11.2020 12:08 12,4 C 11,7 C 11,1 C 89 % 1024,6 hPa 0,0 l/m 0 min 0 min 42 W/m 19,3 km/h (3 Bft) 95,00 %
17.11.2020 12:10 12,4 C 11,7 C 11,1 C 89 % 1024,6 hPa 0,0 l/m 0 min 0 min 40 W/m 32,2 km/h (5 Bft) 91,49 %
17.11.2020 12:12 12,4 C 11,7 C 11,1 C 89 % 1024,6 hPa 0,0 l/m 0 min 0 min 44 W/m 25,7 km/h (4 Bft) 93,62 %
17.11.2020 12:14 12,4 C 11,7 C 11,1 C 89 % 1024,6 hPa 0,0 l/m 0 min 0 min 47 W/m 25,7 km/h (4 Bft) 97,83 %
17.11.2020 12:16 12,4 C 11,7 C 11,1 C 89 % 1024,6 hPa 0,0 l/m 0 min 0 min 44 W/m 19,3 km/h (3 Bft) 95,12 %
17.11.2020 12:18 12,4 C 11,7 C 11,1 C 89 % 1024,6 hPa 0,0 l/m 0 min 0 min 45 W/m 25,7 km/h (4 Bft) 93,62 %
17.11.2020 12:20 12,4 C 11,7 C 11,1 C 89 % 1024,7 hPa 0,0 l/m 0 min 0 min 46 W/m 41,8 km/h (6 Bft) 95,74 %
17.11.2020 12:22 12,4 C 12,2 C 11,1 C 89 % 1024,6 hPa 0,0 l/m 0 min 0 min 55 W/m 29,0 km/h (5 Bft) 97,87 %
17.11.2020 12:24 12,4 C 12,2 C 11,1 C 89 % 1024,6 hPa 0,0 l/m 0 min 0 min 47 W/m 16,1 km/h (3 Bft) 95,74 %
17.11.2020 12:26 12,4 C 11,7 C 11,1 C 89 % 1024,6 hPa 0,0 l/m 0 min 0 min 47 W/m 22,5 km/h (4 Bft) 97,87 %
17.11.2020 12:28 12,4 C 11,7 C 11,1 C 89 % 1024,6 hPa 0,0 l/m 0 min 0 min 46 W/m 32,2 km/h (5 Bft) 97,83 %
17.11.2020 12:30 12,4 C 12,2 C 11,1 C 89 % 1024,5 hPa 0,0 l/m 0 min 0 min 42 W/m 32,2 km/h (5 Bft) 95,74 %
17.11.2020 12:32 12,4 C 12,2 C 11,1 C 89 % 1024,6 hPa 0,0 l/m 0 min 0 min 55 W/m 19,3 km/h (3 Bft) 97,87 %
17.11.2020 12:34 12,4 C 12,2 C 11,1 C 89 % 1024,7 hPa 0,0 l/m 0 min 0 min 52 W/m 38,6 km/h (5 Bft) 95,74 %
17.11.2020 12:36 12,4 C 12,2 C 11,1 C 89 % 1024,6 hPa 0,0 l/m 0 min 0 min 47 W/m 19,3 km/h (3 Bft) 98,11 %
17.11.2020 12:38 12,4 C 12,2 C 11,1 C 89 % 1024,7 hPa 0,0 l/m 0 min 0 min 49 W/m 22,5 km/h (4 Bft) 95,65 %
17.11.2020 12:40 12,5 C 12,2 C 11,1 C 89 % 1024,8 hPa 0,0 l/m 0 min 0 min 37 W/m 22,5 km/h (4 Bft) 97,87 %
17.11.2020 12:42 12,5 C 11,7 C 11,1 C 89 % 1024,7 hPa 0,0 l/m 0 min 0 min 32 W/m 32,2 km/h (5 Bft) 100,00 %
17.11.2020 12:44 12,5 C 11,7 C 11,1 C 89 % 1024,7 hPa 0,0 l/m 0 min 0 min 32 W/m 12,9 km/h (3 Bft) 100,00 %
17.11.2020 12:46 12,5 C 12,2 C 11,1 C 89 % 1024,7 hPa 0,0 l/m 0 min 0 min 39 W/m 25,7 km/h (4 Bft) 100,00 %
17.11.2020 12:48 12,5 C 12,2 C 11,1 C 89 % 1024,7 hPa 0,0 l/m 0 min 0 min 42 W/m 22,5 km/h (4 Bft) 100,00 %
17.11.2020 12:50 12,5 C 12,2 C 11,1 C 89 % 1024,7 hPa 0,0 l/m 0 min 0 min 48 W/m 16,1 km/h (3 Bft) 95,74 %
17.11.2020 12:52 12,5 C 12,2 C 11,1 C 89 % 1024,7 hPa 0,0 l/m 0 min 0 min 54 W/m 22,5 km/h (4 Bft) 100,00 %
17.11.2020 12:54 12,5 C 12,2 C 11,1 C 89 % 1024,7 hPa 0,0 l/m 0 min 0 min 49 W/m 25,7 km/h (4 Bft) 100,00 %
17.11.2020 12:56 12,5 C 12,2 C 11,1 C 89 % 1024,8 hPa 0,0 l/m 0 min 0 min 46 W/m 38,6 km/h (5 Bft) 100,00 %
17.11.2020 12:58 12,5 C 12,2 C 11,1 C 89 % 1024,7 hPa 0,0 l/m 0 min 0 min 45 W/m 12,9 km/h (3 Bft) 100,00 %
17.11.2020 13:00 12,5 C 12,2 C 11,1 C 88 % 1024,7 hPa 0,0 l/m 0 min 0 min 44 W/m 19,3 km/h (3 Bft) 100,00 %
17.11.2020 13:04 12,5 C 12,2 C 11,1 C 88 % 1024,7 hPa 0,0 l/m 0 min 0 min 36 W/m 22,5 km/h (4 Bft) 100,00 %
17.11.2020 13:06 12,5 C 12,2 C 11,1 C 88 % 1024,6 hPa 0,0 l/m 0 min 0 min 39 W/m 32,2 km/h (5 Bft) 100,00 %
17.11.2020 13:08 12,5 C 12,2 C 11,1 C 88 % 1024,7 hPa 0,0 l/m 0 min 0 min 37 W/m 9,7 km/h (2 Bft) 100,00 %
17.11.2020 13:10 12,5 C 12,2 C 11,1 C 88 % 1024,7 hPa 0,0 l/m 0 min 0 min 33 W/m 22,5 km/h (4 Bft) 100,00 %
17.11.2020 13:12 12,5 C 12,2 C 11,1 C 88 % 1024,7 hPa 0,0 l/m 0 min 0 min 34 W/m 22,5 km/h (4 Bft) 100,00 %
17.11.2020 13:14 12,5 C 12,2 C 11,1 C 88 % 1024,7 hPa 0,0 l/m 0 min 0 min 36 W/m 29,0 km/h (5 Bft) 100,00 %
17.11.2020 13:16 12,5 C 12,2 C 11,1 C 88 % 1024,7 hPa 0,0 l/m 0 min 0 min 34 W/m 45,1 km/h (6 Bft) 100,00 %
17.11.2020 13:18 12,5 C 12,2 C 11,1 C 88 % 1024,7 hPa 0,0 l/m 0 min 0 min 31 W/m 25,7 km/h (4 Bft) 100,00 %
17.11.2020 13:20 12,5 C 12,2 C 11,1 C 88 % 1024,8 hPa 0,0 l/m 0 min 0 min 29 W/m 6,4 km/h (2 Bft) 100,00 %
17.11.2020 13:22 12,5 C 12,2 C 11,1 C 88 % 1024,8 hPa 0,0 l/m 0 min 0 min 27 W/m 29,0 km/h (5 Bft) 100,00 %
17.11.2020 13:24 12,5 C 12,2 C 11,1 C 88 % 1024,7 hPa 0,0 l/m 0 min 0 min 26 W/m 25,7 km/h (4 Bft) 100,00 %
17.11.2020 13:26 12,5 C 12,2 C 11,1 C 88 % 1024,7 hPa 0,0 l/m 0 min 0 min 27 W/m 22,5 km/h (4 Bft) 100,00 %
17.11.2020 13:28 12,5 C 12,2 C 11,1 C 88 % 1024,7 hPa 0,0 l/m 0 min 0 min 27 W/m 6,4 km/h (2 Bft) 100,00 %
17.11.2020 13:30 12,5 C 12,2 C 11,1 C 88 % 1024,7 hPa 0,0 l/m 0 min 0 min 25 W/m 12,9 km/h (3 Bft) 100,00 %
17.11.2020 13:32 12,5 C 12,2 C 11,1 C 88 % 1024,7 hPa 0,0 l/m 0 min 0 min 25 W/m 16,1 km/h (3 Bft) 100,00 %
17.11.2020 13:34 12,5 C 12,2 C 11,1 C 88 % 1024,7 hPa 0,0 l/m 0 min 0 min 27 W/m 12,9 km/h (3 Bft) 97,87 %
17.11.2020 13:36 12,6 C 12,2 C 11,1 C 88 % 1024,7 hPa 0,0 l/m 0 min 0 min 28 W/m 19,3 km/h (3 Bft) 100,00 %
17.11.2020 13:38 12,5 C 12,2 C 11,1 C 88 % 1024,7 hPa 0,0 l/m 0 min 0 min 31 W/m 3,2 km/h (1 Bft) 100,00 %
17.11.2020 13:40 12,6 C 12,2 C 11,1 C 88 % 1024,8 hPa 0,0 l/m 0 min 0 min 27 W/m 19,3 km/h (3 Bft) 100,00 %
17.11.2020 13:42 12,5 C 12,2 C 11,1 C 88 % 1024,7 hPa 0,0 l/m 0 min 0 min 31 W/m 22,5 km/h (4 Bft) 97,87 %
17.11.2020 13:44 12,5 C 12,2 C 11,1 C 88 % 1024,8 hPa 0,0 l/m 0 min 0 min 31 W/m 25,7 km/h (4 Bft) 100,00 %
17.11.2020 13:46 12,5 C 12,2 C 11,1 C 88 % 1024,8 hPa 0,0 l/m 0 min 0 min 32 W/m 29,0 km/h (5 Bft) 100,00 %
17.11.2020 13:48 12,5 C 12,2 C 11,1 C 88 % 1024,8 hPa 0,0 l/m 0 min 0 min 27 W/m 29,0 km/h (5 Bft) 100,00 %
17.11.2020 13:50 12,5 C 12,2 C 11,1 C 88 % 1024,8 hPa 0,0 l/m 0 min 0 min 25 W/m 29,0 km/h (5 Bft) 100,00 %
17.11.2020 13:52 12,5 C 11,7 C 11,1 C 88 % 1024,9 hPa 0,0 l/m 0 min 0 min 22 W/m 32,2 km/h (5 Bft) 100,00 %
17.11.2020 13:54 12,5 C 12,2 C 11,1 C 88 % 1024,9 hPa 0,0 l/m 0 min 0 min 22 W/m 25,7 km/h (4 Bft) 100,00 %
17.11.2020 13:56 12,5 C 12,2 C 11,1 C 88 % 1024,9 hPa 0,0 l/m 0 min 0 min 20 W/m 22,5 km/h (4 Bft) 100,00 %
17.11.2020 13:58 12,5 C 12,2 C 11,1 C 88 % 1025,0 hPa 0,0 l/m 0 min 0 min 19 W/m 16,1 km/h (3 Bft) 96,00 %
17.11.2020 14:00 12,5 C 11,7 C 11,1 C 88 % 1025,0 hPa 0,0 l/m 0 min 0 min 19 W/m 9,7 km/h (2 Bft) 100,00 %
17.11.2020 14:02 12,5 C 11,7 C 11,1 C 88 % 1024,9 hPa 0,0 l/m 0 min 0 min 22 W/m 16,1 km/h (3 Bft) 95,74 %
17.11.2020 14:04 12,5 C 11,7 C 11,1 C 88 % 1024,9 hPa 0,0 l/m 0 min 0 min 28 W/m 32,2 km/h (5 Bft) 100,00 %
17.11.2020 14:06 12,5 C 12,2 C 11,1 C 88 % 1024,9 hPa 0,0 l/m 0 min 0 min 38 W/m 29,0 km/h (5 Bft) 98,00 %
17.11.2020 14:08 12,5 C 12,2 C 11,1 C 88 % 1025,0 hPa 0,0 l/m 0 min 0 min 39 W/m 29,0 km/h (5 Bft) 97,22 %
17.11.2020 14:10 12,5 C 11,7 C 11,1 C 88 % 1024,9 hPa 0,0 l/m 0 min 0 min 35 W/m 35,4 km/h (5 Bft) 100,00 %
17.11.2020 14:12 12,5 C 11,7 C 11,1 C 88 % 1025,0 hPa 0,0 l/m 0 min 0 min 33 W/m 29,0 km/h (5 Bft) 100,00 %
17.11.2020 14:14 12,5 C 12,2 C 11,1 C 88 % 1024,9 hPa 0,0 l/m 0 min 0 min 34 W/m 32,2 km/h (5 Bft) 100,00 %
17.11.2020 14:16 12,5 C 11,7 C 11,1 C 88 % 1025,0 hPa 0,0 l/m 0 min 0 min 36 W/m 25,7 km/h (4 Bft) 97,96 %
17.11.2020 14:18 12,5 C 12,2 C 11,1 C 88 % 1025,0 hPa 0,0 l/m 0 min 0 min 34 W/m 35,4 km/h (5 Bft) 97,30 %
17.11.2020 14:20 12,5 C 12,2 C 11,1 C 88 % 1025,1 hPa 0,0 l/m 0 min 0 min 28 W/m 35,4 km/h (5 Bft) 97,87 %
17.11.2020 14:22 12,5 C 12,2 C 11,1 C 88 % 1025,1 hPa 0,0 l/m 0 min 0 min 26 W/m 22,5 km/h (4 Bft) 98,15 %
17.11.2020 14:24 12,5 C 11,7 C 11,1 C 88 % 1025,1 hPa 0,0 l/m 0 min 0 min 25 W/m 22,5 km/h (4 Bft) 98,00 %
17.11.2020 14:26 12,5 C 11,7 C 11,1 C 88 % 1025,1 hPa 0,0 l/m 0 min 0 min 28 W/m 22,5 km/h (4 Bft) 94,44 %
17.11.2020 14:28 12,5 C 12,2 C 11,1 C 88 % 1025,1 hPa 0,0 l/m 0 min 0 min 34 W/m 9,7 km/h (2 Bft) 97,87 %
17.11.2020 14:30 12,5 C 12,2 C 11,1 C 88 % 1025,0 hPa 0,0 l/m 0 min 0 min 33 W/m 19,3 km/h (3 Bft) 98,15 %
17.11.2020 14:32 12,5 C 12,2 C 11,1 C 88 % 1025,1 hPa 0,0 l/m 0 min 0 min 28 W/m 12,9 km/h (3 Bft) 94,00 %
17.11.2020 14:34 12,5 C 11,7 C 11,1 C 88 % 1025,1 hPa 0,0 l/m 0 min 0 min 28 W/m 16,1 km/h (3 Bft) 100,00 %
17.11.2020 14:36 12,5 C 11,7 C 11,1 C 88 % 1025,1 hPa 0,0 l/m 0 min 0 min 28 W/m 6,4 km/h (2 Bft) 95,65 %
17.11.2020 14:38 12,5 C 11,7 C 11,1 C 88 % 1025,1 hPa 0,0 l/m 0 min 0 min 30 W/m 16,1 km/h (3 Bft) 94,55 %
17.11.2020 14:40 12,5 C 11,7 C 11,1 C 88 % 1025,2 hPa 0,0 l/m 0 min 0 min 28 W/m 12,9 km/h (3 Bft) 95,65 %
17.11.2020 14:42 12,5 C 11,7 C 11,1 C 88 % 1025,1 hPa 0,0 l/m 0 min 0 min 29 W/m 19,3 km/h (3 Bft) 95,74 %
17.11.2020 14:44 12,5 C 11,7 C 11,1 C 88 % 1025,1 hPa 0,0 l/m 0 min 0 min 39 W/m 19,3 km/h (3 Bft) 96,00 %
17.11.2020 14:46 12,5 C 11,7 C 11,1 C 88 % 1025,1 hPa 0,0 l/m 0 min 0 min 41 W/m 19,3 km/h (3 Bft) 94,59 %
17.11.2020 14:48 12,5 C 11,7 C 11,1 C 88 % 1025,0 hPa 0,0 l/m 0 min 0 min 42 W/m 19,3 km/h (3 Bft) 95,65 %
17.11.2020 14:50 12,4 C 11,7 C 11,1 C 88 % 1025,0 hPa 0,0 l/m 0 min 0 min 39 W/m 3,2 km/h (1 Bft) 96,30 %
17.11.2020 14:52 12,4 C 11,7 C 11,1 C 88 % 1025,0 hPa 0,0 l/m 0 min 0 min 39 W/m 3,2 km/h (1 Bft) 92,00 %
17.11.2020 14:54 12,4 C 11,7 C 11,1 C 88 % 1025,1 hPa 0,0 l/m 0 min 0 min 33 W/m 12,9 km/h (3 Bft) 91,89 %
17.11.2020 14:56 12,4 C 11,7 C 11,1 C 88 % 1025,1 hPa 0,0 l/m 0 min 0 min 30 W/m 6,4 km/h (2 Bft) 93,62 %
17.11.2020 14:58 12,4 C 11,7 C 11,1 C 88 % 1025,1 hPa 0,0 l/m 0 min 0 min 31 W/m 6,4 km/h (2 Bft) 93,62 %
17.11.2020 15:00 12,4 C 11,7 C 11,1 C 88 % 1025,1 hPa 0,0 l/m 0 min 0 min 27 W/m 32,2 km/h (5 Bft) 94,44 %
17.11.2020 15:02 12,4 C 11,7 C 11,1 C 88 % 1025,1 hPa 0,0 l/m 0 min 0 min 24 W/m 12,9 km/h (3 Bft) 89,80 %
17.11.2020 15:04 12,4 C 11,7 C 10,6 C 88 % 1025,1 hPa 0,0 l/m 0 min 0 min 24 W/m 25,7 km/h (4 Bft) 93,62 %
17.11.2020 15:06 12,4 C 11,7 C 10,6 C 88 % 1025,2 hPa 0,0 l/m 0 min 0 min 25 W/m 25,7 km/h (4 Bft) 95,74 %
17.11.2020 15:08 12,3 C 11,7 C 10,6 C 88 % 1025,2 hPa 0,0 l/m 0 min 0 min 21 W/m 6,4 km/h (2 Bft) 95,74 %
17.11.2020 15:10 12,3 C 11,7 C 10,6 C 88 % 1025,2 hPa 0,0 l/m 0 min 0 min 18 W/m 29,0 km/h (5 Bft) 94,44 %
17.11.2020 15:12 12,3 C 11,7 C 10,6 C 89 % 1025,2 hPa 0,0 l/m 0 min 0 min 18 W/m 16,1 km/h (3 Bft) 95,74 %
17.11.2020 15:14 12,3 C 11,7 C 10,6 C 89 % 1025,2 hPa 0,0 l/m 0 min 0 min 15 W/m 22,5 km/h (4 Bft) 96,30 %
17.11.2020 15:16 12,3 C 11,7 C 10,6 C 89 % 1025,2 hPa 0,0 l/m 0 min 0 min 14 W/m 12,9 km/h (3 Bft) 98,00 %
17.11.2020 15:18 12,3 C 11,7 C 10,6 C 89 % 1025,2 hPa 0,0 l/m 0 min 0 min 14 W/m 12,9 km/h (3 Bft) 94,59 %
17.11.2020 15:20 12,3 C 11,7 C 10,6 C 89 % 1025,2 hPa 0,0 l/m 0 min 0 min 14 W/m 29,0 km/h (5 Bft) 95,74 %
17.11.2020 15:22 12,3 C 11,7 C 10,6 C 89 % 1025,1 hPa 0,0 l/m 0 min 0 min 15 W/m 29,0 km/h (5 Bft) 98,15 %
17.11.2020 15:24 12,3 C 11,7 C 10,6 C 89 % 1025,2 hPa 0,0 l/m 0 min 0 min 14 W/m 22,5 km/h (4 Bft) 97,96 %
17.11.2020 15:26 12,3 C 11,7 C 10,6 C 89 % 1025,2 hPa 0,0 l/m 0 min 0 min 14 W/m 16,1 km/h (3 Bft) 97,30 %
17.11.2020 15:28 12,2 C 11,7 C 10,6 C 88 % 1025,2 hPa 0,0 l/m 0 min 0 min 14 W/m 22,5 km/h (4 Bft) 97,87 %
17.11.2020 15:30 12,2 C 11,7 C 10,6 C 89 % 1025,2 hPa 0,0 l/m 0 min 0 min 16 W/m 22,5 km/h (4 Bft) 98,15 %
17.11.2020 15:32 12,2 C 11,7 C 10,6 C 88 % 1025,3 hPa 0,0 l/m 0 min 0 min 16 W/m 32,2 km/h (5 Bft) 96,00 %
17.11.2020 15:34 12,2 C 11,7 C 10,6 C 88 % 1025,3 hPa 0,0 l/m 0 min 0 min 14 W/m 25,7 km/h (4 Bft) 97,22 %
17.11.2020 15:36 12,2 C 11,7 C 10,6 C 88 % 1025,4 hPa 0,0 l/m 0 min 0 min 14 W/m 22,5 km/h (4 Bft) 97,87 %
17.11.2020 15:38 12,3 C 11,7 C 11,1 C 88 % 1025,4 hPa 0,0 l/m 0 min 0 min 13 W/m 19,3 km/h (3 Bft) 97,87 %
17.11.2020 15:40 12,3 C 11,7 C 10,6 C 88 % 1025,4 hPa 0,0 l/m 0 min 0 min 11 W/m 32,2 km/h (5 Bft) 93,62 %
17.11.2020 15:42 12,3 C 11,7 C 10,6 C 88 % 1025,4 hPa 0,0 l/m 0 min 0 min 10 W/m 25,7 km/h (4 Bft) 98,15 %
17.11.2020 15:44 12,3 C 11,7 C 10,6 C 88 % 1025,4 hPa 0,0 l/m 0 min 0 min 10 W/m 32,2 km/h (5 Bft) 97,87 %
17.11.2020 15:46 12,3 C 11,7 C 10,6 C 88 % 1025,4 hPa 0,0 l/m 0 min 0 min 9 W/m 25,7 km/h (4 Bft) 98,00 %
17.11.2020 15:48 12,3 C 11,7 C 10,6 C 88 % 1025,4 hPa 0,0 l/m 0 min 0 min 9 W/m 35,4 km/h (5 Bft) 97,22 %
17.11.2020 15:50 12,3 C 11,7 C 11,1 C 88 % 1025,4 hPa 0,0 l/m 0 min 0 min 9 W/m 16,1 km/h (3 Bft) 97,87 %
17.11.2020 15:52 12,3 C 11,7 C 11,1 C 88 % 1025,4 hPa 0,0 l/m 0 min 0 min 9 W/m 25,7 km/h (4 Bft) 98,15 %
17.11.2020 15:54 12,3 C 11,7 C 11,1 C 88 % 1025,4 hPa 0,0 l/m 0 min 0 min 11 W/m 25,7 km/h (4 Bft) 100,00 %
17.11.2020 15:56 12,3 C 11,7 C 11,1 C 88 % 1025,4 hPa 0,0 l/m 0 min 0 min 11 W/m 29,0 km/h (5 Bft) 97,87 %
17.11.2020 15:58 12,3 C 11,7 C 11,1 C 87 % 1025,4 hPa 0,0 l/m 0 min 0 min 11 W/m 22,5 km/h (4 Bft) 98,00 %
17.11.2020 16:00 12,3 C 11,7 C 11,1 C 87 % 1025,4 hPa 0,0 l/m 0 min 0 min 11 W/m 19,3 km/h (3 Bft) 100,00 %
17.11.2020 16:03 12,3 C 11,7 C 11,1 C 87 % 1025,4 hPa 0,0 l/m 0 min 0 min 12 W/m 22,5 km/h (4 Bft) 100,00 %
17.11.2020 16:04 12,3 C 11,7 C 11,1 C 87 % 1025,4 hPa 0,0 l/m 0 min 0 min 12 W/m 25,7 km/h (4 Bft) 100,00 %
17.11.2020 16:05 12,3 C 11,7 C 11,1 C 87 % 1025,4 hPa 0,0 l/m 0 min 0 min 12 W/m 25,7 km/h (4 Bft) 100,00 %
17.11.2020 16:08 12,3 C 11,7 C 11,1 C 87 % 1025,3 hPa 0,0 l/m 0 min 0 min 12 W/m 16,1 km/h (3 Bft) 100,00 %
17.11.2020 16:10 12,4 C 11,7 C 11,1 C 87 % 1025,3 hPa 0,0 l/m 0 min 0 min 12 W/m 22,5 km/h (4 Bft) 97,37 %
17.11.2020 16:12 12,4 C 11,7 C 11,1 C 87 % 1025,3 hPa 0,0 l/m 0 min 0 min 12 W/m 19,3 km/h (3 Bft) 100,00 %
17.11.2020 16:14 12,4 C 11,7 C 11,1 C 87 % 1025,3 hPa 0,0 l/m 0 min 0 min 12 W/m 12,9 km/h (3 Bft) 100,00 %
17.11.2020 16:16 12,4 C 11,7 C 11,1 C 87 % 1025,3 hPa 0,0 l/m 0 min 0 min 12 W/m 3,2 km/h (1 Bft) 100,00 %
17.11.2020 16:18 12,4 C 11,7 C 10,6 C 87 % 1025,3 hPa 0,0 l/m 0 min 0 min 12 W/m 16,1 km/h (3 Bft) 100,00 %
17.11.2020 16:20 12,4 C 11,7 C 11,1 C 87 % 1025,3 hPa 0,0 l/m 0 min 0 min 12 W/m 25,7 km/h (4 Bft) 97,83 %
17.11.2020 16:22 12,4 C 11,7 C 10,6 C 87 % 1025,3 hPa 0,0 l/m 0 min 0 min 10 W/m 32,2 km/h (5 Bft) 100,00 %
17.11.2020 16:24 12,4 C 11,7 C 10,6 C 87 % 1025,3 hPa 0,0 l/m 0 min 0 min 8 W/m 12,9 km/h (3 Bft) 100,00 %
17.11.2020 16:26 12,4 C 11,7 C 10,6 C 87 % 1025,4 hPa 0,0 l/m 0 min 0 min 7 W/m 19,3 km/h (3 Bft) 100,00 %
17.11.2020 16:28 12,4 C 11,7 C 10,6 C 87 % 1025,4 hPa 0,0 l/m 0 min 0 min 6 W/m 25,7 km/h (4 Bft) 100,00 %
17.11.2020 16:30 12,4 C 11,7 C 10,6 C 87 % 1025,4 hPa 0,0 l/m 0 min 0 min 5 W/m 25,7 km/h (4 Bft) 100,00 %
17.11.2020 16:32 12,4 C 11,7 C 10,6 C 87 % 1025,4 hPa 0,0 l/m 0 min 0 min 5 W/m 19,3 km/h (3 Bft) 100,00 %
17.11.2020 16:34 12,3 C 11,7 C 10,6 C 87 % 1025,5 hPa 0,0 l/m 0 min 0 min 0 W/m 22,5 km/h (4 Bft) 100,00 %
17.11.2020 16:36 12,4 C 11,7 C 10,6 C 87 % 1025,4 hPa 0,0 l/m 0 min 0 min 0 W/m 16,1 km/h (3 Bft) 97,30 %
17.11.2020 16:38 12,4 C 11,7 C 10,6 C 86 % 1025,4 hPa 0,0 l/m 0 min 0 min 0 W/m 16,1 km/h (3 Bft) 100,00 %
17.11.2020 16:40 12,4 C 11,7 C 10,6 C 86 % 1025,5 hPa 0,0 l/m 0 min 0 min 0 W/m 25,7 km/h (4 Bft) 100,00 %
17.11.2020 16:42 12,3 C 11,7 C 10,6 C 86 % 1025,5 hPa 0,0 l/m 0 min 0 min 0 W/m 6,4 km/h (2 Bft) 100,00 %
17.11.2020 16:44 12,3 C 11,7 C 10,6 C 86 % 1025,5 hPa 0,0 l/m 0 min 0 min 0 W/m 6,4 km/h (2 Bft) 100,00 %
17.11.2020 16:46 12,4 C 11,7 C 10,6 C 86 % 1025,6 hPa 0,0 l/m 0 min 0 min 0 W/m 19,3 km/h (3 Bft) 100,00 %
17.11.2020 16:48 12,4 C 11,7 C 10,6 C 86 % 1025,6 hPa 0,0 l/m 0 min 0 min 0 W/m 19,3 km/h (3 Bft) 100,00 %
17.11.2020 16:50 12,4 C 11,7 C 10,6 C 86 % 1025,6 hPa 0,0 l/m 0 min 0 min 0 W/m 16,1 km/h (3 Bft) 100,00 %
17.11.2020 16:52 12,4 C 11,7 C 10,6 C 86 % 1025,6 hPa 0,0 l/m 0 min 0 min 0 W/m 25,7 km/h (4 Bft) 100,00 %
17.11.2020 16:54 12,4 C 11,7 C 10,6 C 86 % 1025,6 hPa 0,0 l/m 0 min 0 min 0 W/m 19,3 km/h (3 Bft) 98,00 %
17.11.2020 16:56 12,4 C 11,7 C 10,6 C 86 % 1025,6 hPa 0,0 l/m 0 min 0 min 0 W/m 12,9 km/h (3 Bft) 100,00 %
17.11.2020 16:58 12,3 C 11,7 C 10,6 C 86 % 1025,6 hPa 0,0 l/m 0 min 0 min 0 W/m 25,7 km/h (4 Bft) 100,00 %
17.11.2020 17:00 12,3 C 11,7 C 10,6 C 86 % 1025,6 hPa 0,0 l/m 0 min 0 min 0 W/m 19,3 km/h (3 Bft) 100,00 %
17.11.2020 17:02 12,3 C 11,7 C 10,6 C 86 % 1025,7 hPa 0,0 l/m 0 min 0 min 0 W/m 29,0 km/h (5 Bft) 98,00 %
17.11.2020 17:04 12,4 C 11,7 C 10,6 C 86 % 1025,7 hPa 0,0 l/m 0 min 0 min 0 W/m 38,6 km/h (5 Bft) 100,00 %
17.11.2020 17:06 12,3 C 11,7 C 10,6 C 86 % 1025,7 hPa 0,0 l/m 0 min 0 min 0 W/m 19,3 km/h (3 Bft) 97,22 %
17.11.2020 17:08 12,4 C 11,7 C 10,6 C 86 % 1025,8 hPa 0,0 l/m 0 min 0 min 0 W/m 25,7 km/h (4 Bft) 100,00 %
17.11.2020 17:10 12,4 C 11,7 C 10,6 C 86 % 1025,7 hPa 0,0 l/m 0 min 0 min 0 W/m 22,5 km/h (4 Bft) 100,00 %
17.11.2020 17:12 12,4 C 11,7 C 10,6 C 86 % 1025,8 hPa 0,0 l/m 0 min 0 min 0 W/m 19,3 km/h (3 Bft) 97,87 %
17.11.2020 17:14 12,3 C 11,7 C 10,6 C 86 % 1025,7 hPa 0,0 l/m 0 min 0 min 0 W/m 25,7 km/h (4 Bft) 100,00 %
17.11.2020 17:16 12,3 C 11,7 C 10,6 C 86 % 1025,7 hPa 0,0 l/m 0 min 0 min 0 W/m 19,3 km/h (3 Bft) 96,00 %
17.11.2020 17:18 12,4 C 11,7 C 10,6 C 86 % 1025,7 hPa 0,0 l/m 0 min 0 min 0 W/m 9,7 km/h (2 Bft) 97,87 %
17.11.2020 17:20 12,3 C 11,7 C 10,6 C 86 % 1025,7 hPa 0,0 l/m 0 min 0 min 0 W/m 16,1 km/h (3 Bft) 97,22 %
17.11.2020 17:22 12,3 C 11,7 C 10,6 C 86 % 1025,9 hPa 0,0 l/m 0 min 0 min 0 W/m 29,0 km/h (5 Bft) 95,74 %
17.11.2020 17:24 12,3 C 11,7 C 10,6 C 86 % 1025,9 hPa 0,0 l/m 0 min 0 min 0 W/m 29,0 km/h (5 Bft) 92,59 %
17.11.2020 17:26 12,3 C 11,7 C 10,6 C 86 % 1025,8 hPa 0,0 l/m 0 min 0 min 0 W/m 25,7 km/h (4 Bft) 95,74 %
17.11.2020 17:28 12,3 C 11,7 C 10,6 C 86 % 1025,8 hPa 0,0 l/m 0 min 0 min 0 W/m 16,1 km/h (3 Bft) 94,00 %
17.11.2020 17:30 12,3 C 11,7 C 10,6 C 86 % 1025,8 hPa 0,0 l/m 0 min 0 min 0 W/m 29,0 km/h (5 Bft) 95,74 %
17.11.2020 17:32 12,3 C 11,7 C 10,6 C 86 % 1025,8 hPa 0,0 l/m 0 min 0 min 0 W/m 12,9 km/h (3 Bft) 95,74 %
17.11.2020 17:34 12,3 C 11,7 C 10,6 C 86 % 1025,7 hPa 0,0 l/m 0 min 0 min 0 W/m 25,7 km/h (4 Bft) 94,44 %
17.11.2020 17:36 12,3 C 11,7 C 10,6 C 86 % 1025,8 hPa 0,0 l/m 0 min 0 min 0 W/m 19,3 km/h (3 Bft) 95,74 %
17.11.2020 17:38 12,3 C 11,7 C 10,6 C 86 % 1025,7 hPa 0,0 l/m 0 min 0 min 0 W/m 29,0 km/h (5 Bft) 95,74 %
17.11.2020 17:40 12,3 C 11,7 C 10,6 C 86 % 1025,8 hPa 0,0 l/m 0 min 0 min 0 W/m 12,9 km/h (3 Bft) 93,62 %
17.11.2020 17:42 12,3 C 11,7 C 10,6 C 86 % 1025,8 hPa 0,0 l/m 0 min 0 min 0 W/m 12,9 km/h (3 Bft) 94,55 %
17.11.2020 17:44 12,3 C 11,7 C 10,6 C 86 % 1025,8 hPa 0,0 l/m 0 min 0 min 0 W/m 35,4 km/h (5 Bft) 95,92 %
17.11.2020 17:46 12,3 C 11,7 C 10,6 C 86 % 1025,9 hPa 0,0 l/m 0 min 0 min 0 W/m 35,4 km/h (5 Bft) 94,44 %
17.11.2020 17:48 12,3 C 11,7 C 10,6 C 86 % 1025,8 hPa 0,0 l/m 0 min 0 min 0 W/m 29,0 km/h (5 Bft) 95,74 %
17.11.2020 17:50 12,2 C 11,7 C 10,6 C 86 % 1025,8 hPa 0,0 l/m 0 min 0 min 0 W/m 22,5 km/h (4 Bft) 94,55 %
17.11.2020 17:52 12,2 C 11,7 C 10,6 C 86 % 1025,9 hPa 0,0 l/m 0 min 0 min 0 W/m 32,2 km/h (5 Bft) 95,74 %
17.11.2020 17:54 12,2 C 11,7 C 10,6 C 86 % 1025,9 hPa 0,0 l/m 0 min 0 min 0 W/m 6,4 km/h (2 Bft) 96,00 %
17.11.2020 17:56 12,2 C 11,7 C 10,6 C 86 % 1025,9 hPa 0,0 l/m 0 min 0 min 0 W/m 22,5 km/h (4 Bft) 94,29 %
17.11.2020 17:58 12,2 C 11,7 C 10,6 C 86 % 1025,8 hPa 0,0 l/m 0 min 0 min 0 W/m 35,4 km/h (5 Bft) 95,74 %
17.11.2020 18:00 12,1 C 11,7 C 10,6 C 86 % 1025,8 hPa 0,0 l/m 0 min 0 min 0 W/m 16,1 km/h (3 Bft) 93,62 %
17.11.2020 18:02 12,1 C 11,7 C 10,6 C 86 % 1025,8 hPa 0,0 l/m 0 min 0 min 0 W/m 16,1 km/h (3 Bft) 97,87 %
17.11.2020 18:04 12,1 C 11,7 C 10,6 C 86 % 1025,8 hPa 0,0 l/m 0 min 0 min 0 W/m 12,9 km/h (3 Bft) 98,18 %
17.11.2020 18:08 12,1 C 11,7 C 10,6 C 86 % 1025,9 hPa 0,0 l/m 0 min 0 min 0 W/m 35,4 km/h (5 Bft) 98,96 %
17.11.2020 18:10 12,1 C 11,7 C 10,6 C 87 % 1026,0 hPa 0,0 l/m 0 min 0 min 0 W/m 22,5 km/h (4 Bft) 100,00 %
17.11.2020 18:12 12,1 C 11,7 C 10,6 C 87 % 1026,0 hPa 0,0 l/m 0 min 0 min 0 W/m 25,7 km/h (4 Bft) 100,00 %
17.11.2020 18:14 12,1 C 11,7 C 10,6 C 87 % 1026,0 hPa 0,0 l/m 0 min 0 min 0 W/m 19,3 km/h (3 Bft) 100,00 %
17.11.2020 18:16 12,1 C 11,7 C 10,6 C 87 % 1026,0 hPa 0,0 l/m 0 min 0 min 0 W/m 19,3 km/h (3 Bft) 97,83 %
17.11.2020 18:18 12,1 C 11,7 C 10,6 C 87 % 1025,9 hPa 0,0 l/m 0 min 0 min 0 W/m 29,0 km/h (5 Bft) 100,00 %
17.11.2020 18:20 12,1 C 11,7 C 10,6 C 87 % 1025,9 hPa 0,0 l/m 0 min 0 min 0 W/m 22,5 km/h (4 Bft) 100,00 %
17.11.2020 18:22 12,0 C 11,1 C 10,6 C 87 % 1026,0 hPa 0,0 l/m 0 min 0 min 0 W/m 12,9 km/h (3 Bft) 94,59 %
17.11.2020 18:24 12,0 C 11,1 C 10,6 C 87 % 1025,9 hPa 0,0 l/m 0 min 0 min 0 W/m 32,2 km/h (5 Bft) 97,87 %
17.11.2020 18:26 12,0 C 11,1 C 10,6 C 87 % 1026,0 hPa 0,0 l/m 0 min 0 min 0 W/m 22,5 km/h (4 Bft) 98,15 %
17.11.2020 18:28 12,0 C 11,1 C 10,6 C 87 % 1026,0 hPa 0,0 l/m 0 min 0 min 0 W/m 29,0 km/h (5 Bft) 97,87 %
17.11.2020 18:30 12,0 C 11,1 C 10,6 C 87 % 1026,0 hPa 0,0 l/m 0 min 0 min 0 W/m 22,5 km/h (4 Bft) 97,96 %
17.11.2020 18:32 12,0 C 11,1 C 10,6 C 87 % 1025,9 hPa 0,0 l/m 0 min 0 min 0 W/m 32,2 km/h (5 Bft) 94,59 %
17.11.2020 18:34 12,0 C 11,1 C 10,6 C 87 % 1025,9 hPa 0,0 l/m 0 min 0 min 0 W/m 6,4 km/h (2 Bft) 97,87 %
17.11.2020 18:36 12,0 C 11,1 C 10,6 C 87 % 1025,9 hPa 0,0 l/m 0 min 0 min 0 W/m 29,0 km/h (5 Bft) 98,15 %
17.11.2020 18:38 12,0 C 11,1 C 10,6 C 87 % 1025,9 hPa 0,0 l/m 0 min 0 min 0 W/m 25,7 km/h (4 Bft) 100,00 %
17.11.2020 18:40 11,9 C 11,1 C 10,6 C 87 % 1026,0 hPa 0,0 l/m 0 min 0 min 0 W/m 25,7 km/h (4 Bft) 95,74 %
17.11.2020 18:42 11,9 C 11,1 C 10,6 C 87 % 1026,0 hPa 0,0 l/m 0 min 0 min 0 W/m 22,5 km/h (4 Bft) 97,22 %
17.11.2020 18:44 11,9 C 11,1 C 10,0 C 87 % 1025,9 hPa 0,0 l/m 0 min 0 min 0 W/m 29,0 km/h (5 Bft) 97,87 %
17.11.2020 18:46 11,9 C 11,1 C 10,0 C 87 % 1026,0 hPa 0,0 l/m 0 min 0 min 0 W/m 32,2 km/h (5 Bft) 96,30 %
17.11.2020 18:48 11,9 C 11,1 C 10,0 C 88 % 1026,0 hPa 0,0 l/m 0 min 0 min 0 W/m 25,7 km/h (4 Bft) 98,00 %
17.11.2020 18:50 11,9 C 11,1 C 10,0 C 88 % 1025,9 hPa 0,0 l/m 0 min 0 min 0 W/m 29,0 km/h (5 Bft) 97,30 %
17.11.2020 18:52 11,9 C 11,1 C 10,0 C 88 % 1025,9 hPa 0,0 l/m 0 min 0 min 0 W/m 25,7 km/h (4 Bft) 97,83 %
17.11.2020 18:54 11,8 C 11,1 C 10,0 C 88 % 1026,0 hPa 0,0 l/m 0 min 0 min 0 W/m 25,7 km/h (4 Bft) 98,15 %
17.11.2020 18:56 11,8 C 11,1 C 10,0 C 88 % 1026,0 hPa 0,0 l/m 0 min 0 min 0 W/m 22,5 km/h (4 Bft) 96,00 %
17.11.2020 18:58 11,8 C 11,1 C 10,0 C 88 % 1026,1 hPa 0,0 l/m 0 min 0 min 0 W/m 32,2 km/h (5 Bft) 97,30 %
17.11.2020 19:00 11,8 C 11,1 C 10,0 C 88 % 1026,1 hPa 0,0 l/m 0 min 0 min 0 W/m 19,3 km/h (3 Bft) 97,87 %
17.11.2020 19:02 11,8 C 11,1 C 10,0 C 88 % 1026,1 hPa 0,0 l/m 0 min 0 min 0 W/m 16,1 km/h (3 Bft) 97,87 %
17.11.2020 19:04 11,8 C 11,1 C 10,0 C 88 % 1026,2 hPa 0,0 l/m 0 min 0 min 0 W/m 22,5 km/h (4 Bft) 100,00 %
17.11.2020 19:06 11,8 C 11,1 C 10,0 C 88 % 1026,1 hPa 0,0 l/m 0 min 0 min 0 W/m 12,9 km/h (3 Bft) 97,96 %
17.11.2020 19:08 11,8 C 11,1 C 10,0 C 88 % 1026,1 hPa 0,0 l/m 0 min 0 min 0 W/m 9,7 km/h (2 Bft) 97,30 %
17.11.2020 19:10 11,8 C 11,1 C 10,0 C 88 % 1026,1 hPa 0,0 l/m 0 min 0 min 0 W/m 22,5 km/h (4 Bft) 93,62 %
17.11.2020 19:12 11,8 C 11,1 C 10,0 C 88 % 1026,1 hPa 0,0 l/m 0 min 0 min 0 W/m 12,9 km/h (3 Bft) 97,87 %
17.11.2020 19:14 11,8 C 11,1 C 10,0 C 88 % 1026,1 hPa 0,0 l/m 0 min 0 min 0 W/m 16,1 km/h (3 Bft) 97,83 %
17.11.2020 19:16 11,7 C 11,1 C 10,0 C 88 % 1026,1 hPa 0,0 l/m 0 min 0 min 0 W/m 29,0 km/h (5 Bft) 98,18 %
17.11.2020 19:18 11,7 C 11,1 C 10,0 C 88 % 1026,2 hPa 0,0 l/m 0 min 0 min 0 W/m 19,3 km/h (3 Bft) 95,92 %
17.11.2020 19:20 11,7 C 11,1 C 10,0 C 88 % 1026,2 hPa 0,0 l/m 0 min 0 min 0 W/m 12,9 km/h (3 Bft) 97,30 %
17.11.2020 19:22 11,7 C 11,1 C 10,0 C 88 % 1026,3 hPa 0,0 l/m 0 min 0 min 0 W/m 6,4 km/h (2 Bft) 97,87 %
17.11.2020 19:24 11,7 C 11,1 C 10,0 C 88 % 1026,3 hPa 0,0 l/m 0 min 0 min 0 W/m 12,9 km/h (3 Bft) 100,00 %
17.11.2020 19:26 11,7 C 11,1 C 10,0 C 88 % 1026,2 hPa 0,0 l/m 0 min 0 min 0 W/m 19,3 km/h (3 Bft) 98,00 %
17.11.2020 19:28 11,7 C 11,1 C 10,0 C 88 % 1026,3 hPa 0,0 l/m 0 min 0 min 0 W/m 19,3 km/h (3 Bft) 100,00 %
17.11.2020 19:30 11,7 C 11,1 C 10,0 C 89 % 1026,3 hPa 0,0 l/m 0 min 0 min 0 W/m 25,7 km/h (4 Bft) 100,00 %
17.11.2020 19:32 11,6 C 11,1 C 10,0 C 89 % 1026,4 hPa 0,0 l/m 0 min 0 min 0 W/m 22,5 km/h (4 Bft) 98,15 %
17.11.2020 19:34 11,6 C 11,1 C 10,0 C 89 % 1026,4 hPa 0,0 l/m 0 min 0 min 0 W/m 16,1 km/h (3 Bft) 100,00 %
17.11.2020 19:36 11,6 C 11,1 C 10,0 C 89 % 1026,4 hPa 0,0 l/m 0 min 0 min 0 W/m 22,5 km/h (4 Bft) 100,00 %
17.11.2020 19:38 11,6 C 11,1 C 10,0 C 89 % 1026,4 hPa 0,0 l/m 0 min 0 min 0 W/m 9,7 km/h (2 Bft) 100,00 %
17.11.2020 19:40 11,6 C 11,1 C 10,0 C 89 % 1026,4 hPa 0,0 l/m 0 min 0 min 0 W/m 19,3 km/h (3 Bft) 100,00 %
17.11.2020 19:42 11,6 C 11,1 C 10,0 C 89 % 1026,4 hPa 0,0 l/m 0 min 0 min 0 W/m 19,3 km/h (3 Bft) 95,74 %
17.11.2020 19:44 11,6 C 11,1 C 10,0 C 89 % 1026,4 hPa 0,0 l/m 0 min 0 min 0 W/m 12,9 km/h (3 Bft) 98,15 %
17.11.2020 19:46 11,6 C 11,1 C 10,0 C 89 % 1026,5 hPa 0,0 l/m 0 min 0 min 0 W/m 16,1 km/h (3 Bft) 98,00 %
17.11.2020 19:48 11,6 C 11,1 C 10,0 C 89 % 1026,5 hPa 0,0 l/m 0 min 0 min 0 W/m 16,1 km/h (3 Bft) 100,00 %
17.11.2020 19:50 11,6 C 11,1 C 10,0 C 89 % 1026,5 hPa 0,0 l/m 0 min 0 min 0 W/m 22,5 km/h (4 Bft) 100,00 %
17.11.2020 19:52 11,6 C 11,1 C 10,0 C 89 % 1026,5 hPa 0,0 l/m 0 min 0 min 0 W/m 19,3 km/h (3 Bft) 97,87 %
17.11.2020 19:54 11,6 C 11,1 C 10,0 C 89 % 1026,6 hPa 0,0 l/m 0 min 0 min 0 W/m 12,9 km/h (3 Bft) 100,00 %
17.11.2020 19:56 11,6 C 11,1 C 10,0 C 89 % 1026,6 hPa 0,0 l/m 0 min 0 min 0 W/m 19,3 km/h (3 Bft) 100,00 %
17.11.2020 19:58 11,6 C 11,1 C 10,0 C 89 % 1026,6 hPa 0,0 l/m 0 min 0 min 0 W/m 19,3 km/h (3 Bft) 94,00 %
17.11.2020 20:00 11,6 C 11,1 C 10,0 C 89 % 1026,6 hPa 0,0 l/m 0 min 0 min 0 W/m 6,4 km/h (2 Bft) 100,00 %
17.11.2020 20:02 11,6 C 11,1 C 10,0 C 89 % 1026,6 hPa 0,0 l/m 0 min 0 min 0 W/m 22,5 km/h (4 Bft) 93,48 %
17.11.2020 20:04 11,6 C 11,1 C 10,0 C 89 % 1026,7 hPa 0,0 l/m 0 min 0 min 0 W/m 35,4 km/h (5 Bft) 98,18 %
17.11.2020 20:06 11,6 C 11,1 C 10,0 C 89 % 1026,5 hPa 0,0 l/m 0 min 0 min 0 W/m 3,2 km/h (1 Bft) 95,92 %
17.11.2020 20:08 11,6 C 11,1 C 10,0 C 89 % 1026,6 hPa 0,0 l/m 0 min 0 min 0 W/m 19,3 km/h (3 Bft) 97,30 %
17.11.2020 20:10 11,6 C 11,1 C 10,0 C 89 % 1026,7 hPa 0,0 l/m 0 min 0 min 0 W/m 6,4 km/h (2 Bft) 97,87 %
17.11.2020 20:12 11,6 C 11,1 C 10,0 C 89 % 1026,7 hPa 0,0 l/m 0 min 0 min 0 W/m 22,5 km/h (4 Bft) 97,87 %
17.11.2020 20:14 11,6 C 11,1 C 10,0 C 89 % 1026,6 hPa 0,0 l/m 0 min 0 min 0 W/m 12,9 km/h (3 Bft) 98,15 %
17.11.2020 20:16 11,6 C 11,1 C 10,0 C 90 % 1026,6 hPa 0,0 l/m 0 min 0 min 0 W/m 0,0 km/h (0 Bft) 94,87 %
17.11.2020 20:18 11,6 C 11,1 C 10,0 C 90 % 1026,7 hPa 0,0 l/m 0 min 0 min 0 W/m 19,3 km/h (3 Bft) 94,55 %
17.11.2020 20:20 11,6 C 11,1 C 10,0 C 90 % 1026,6 hPa 0,0 l/m 0 min 0 min 0 W/m 3,2 km/h (1 Bft) 96,00 %
17.11.2020 20:22 11,6 C 11,1 C 10,0 C 90 % 1026,6 hPa 0,0 l/m 0 min 0 min 0 W/m 12,9 km/h (3 Bft) 91,67 %
17.11.2020 20:24 11,6 C 11,1 C 10,0 C 90 % 1026,5 hPa 0,0 l/m 0 min 0 min 0 W/m 3,2 km/h (1 Bft) 95,65 %
17.11.2020 20:26 11,6 C 11,1 C 10,0 C 90 % 1026,5 hPa 0,0 l/m 0 min 0 min 0 W/m 22,5 km/h (4 Bft) 96,43 %
17.11.2020 20:28 11,5 C 11,1 C 10,0 C 89 % 1026,6 hPa 0,0 l/m 0 min 0 min 0 W/m 19,3 km/h (3 Bft) 95,65 %
17.11.2020 20:30 11,5 C 11,1 C 10,0 C 90 % 1026,5 hPa 0,0 l/m 0 min 0 min 0 W/m 25,7 km/h (4 Bft) 95,74 %
17.11.2020 20:32 11,5 C 11,1 C 10,0 C 90 % 1026,5 hPa 0,0 l/m 0 min 0 min 0 W/m 12,9 km/h (3 Bft) 95,74 %
17.11.2020 20:34 11,5 C 11,1 C 10,0 C 90 % 1026,6 hPa 0,0 l/m 0 min 0 min 0 W/m 25,7 km/h (4 Bft) 93,62 %
17.11.2020 20:36 11,5 C 11,1 C 10,0 C 90 % 1026,6 hPa 0,0 l/m 0 min 0 min 0 W/m 19,3 km/h (3 Bft) 93,62 %
17.11.2020 20:38 11,5 C 11,1 C 10,0 C 90 % 1026,6 hPa 0,0 l/m 0 min 0 min 0 W/m 25,7 km/h (4 Bft) 93,62 %
17.11.2020 20:40 11,5 C 11,1 C 10,0 C 90 % 1026,5 hPa 0,0 l/m 0 min 0 min 0 W/m 16,1 km/h (3 Bft) 95,65 %
17.11.2020 20:42 11,5 C 11,1 C 10,0 C 90 % 1026,5 hPa 0,0 l/m 0 min 0 min 0 W/m 25,7 km/h (4 Bft) 95,74 %
17.11.2020 20:44 11,5 C 11,1 C 10,0 C 90 % 1026,6 hPa 0,0 l/m 0 min 0 min 0 W/m 19,3 km/h (3 Bft) 95,74 %
17.11.2020 20:46 11,5 C 11,1 C 10,0 C 90 % 1026,6 hPa 0,0 l/m 0 min 0 min 0 W/m 16,1 km/h (3 Bft) 97,87 %
17.11.2020 20:48 11,5 C 11,1 C 10,0 C 90 % 1026,6 hPa 0,0 l/m 0 min 0 min 0 W/m 22,5 km/h (4 Bft) 97,87 %
17.11.2020 20:50 11,5 C 11,1 C 10,0 C 90 % 1026,6 hPa 0,0 l/m 0 min 0 min 0 W/m 9,7 km/h (2 Bft) 97,83 %
17.11.2020 20:52 11,5 C 11,1 C 10,0 C 90 % 1026,6 hPa 0,0 l/m 0 min 0 min 0 W/m 38,6 km/h (5 Bft) 97,87 %
17.11.2020 20:54 11,5 C 11,1 C 10,0 C 90 % 1026,6 hPa 0,0 l/m 0 min 0 min 0 W/m 3,2 km/h (1 Bft) 93,62 %
17.11.2020 20:56 11,5 C 11,1 C 10,0 C 90 % 1026,7 hPa 0,0 l/m 0 min 0 min 0 W/m 16,1 km/h (3 Bft) 95,74 %
17.11.2020 20:58 11,5 C 11,1 C 10,0 C 90 % 1026,6 hPa 0,0 l/m 0 min 0 min 0 W/m 16,1 km/h (3 Bft) 95,74 %
17.11.2020 21:00 11,5 C 11,1 C 10,0 C 90 % 1026,7 hPa 0,0 l/m 0 min 0 min 0 W/m 9,7 km/h (2 Bft) 97,87 %
17.11.2020 21:02 11,5 C 10,6 C 10,0 C 90 % 1026,6 hPa 0,0 l/m 0 min 0 min 0 W/m 6,4 km/h (2 Bft) 95,65 %
17.11.2020 21:04 11,5 C 10,6 C 10,0 C 90 % 1026,7 hPa 0,0 l/m 0 min 0 min 0 W/m 12,9 km/h (3 Bft) 97,87 %
17.11.2020 21:06 11,5 C 10,6 C 10,0 C 90 % 1026,6 hPa 0,0 l/m 0 min 0 min 0 W/m 16,1 km/h (3 Bft) 100,00 %
17.11.2020 21:08 11,5 C 10,6 C 10,0 C 90 % 1026,7 hPa 0,0 l/m 0 min 0 min 0 W/m 3,2 km/h (1 Bft) 100,00 %
17.11.2020 21:10 11,5 C 10,6 C 10,0 C 90 % 1026,7 hPa 0,0 l/m 0 min 0 min 0 W/m 16,1 km/h (3 Bft) 100,00 %
17.11.2020 21:12 11,5 C 10,6 C 10,0 C 90 % 1026,7 hPa 0,0 l/m 0 min 0 min 0 W/m 16,1 km/h (3 Bft) 100,00 %
17.11.2020 21:14 11,5 C 10,6 C 10,0 C 90 % 1026,7 hPa 0,0 l/m 0 min 0 min 0 W/m 12,9 km/h (3 Bft) 100,00 %
17.11.2020 21:16 11,5 C 10,6 C 10,0 C 90 % 1026,6 hPa 0,0 l/m 0 min 0 min 0 W/m 12,9 km/h (3 Bft) 100,00 %
17.11.2020 21:18 11,5 C 10,6 C 10,0 C 90 % 1026,7 hPa 0,0 l/m 0 min 0 min 0 W/m 12,9 km/h (3 Bft) 100,00 %
17.11.2020 21:20 11,5 C 10,6 C 10,0 C 90 % 1026,6 hPa 0,0 l/m 0 min 0 min 0 W/m 16,1 km/h (3 Bft) 97,87 %
17.11.2020 21:22 11,5 C 10,6 C 10,0 C 90 % 1026,6 hPa 0,0 l/m 0 min 0 min 0 W/m 22,5 km/h (4 Bft) 97,87 %
17.11.2020 21:24 11,5 C 10,6 C 10,0 C 90 % 1026,7 hPa 0,0 l/m 0 min 0 min 0 W/m 6,4 km/h (2 Bft) 100,00 %
17.11.2020 21:26 11,4 C 10,6 C 10,0 C 90 % 1026,6 hPa 0,0 l/m 0 min 0 min 0 W/m 19,3 km/h (3 Bft) 100,00 %
17.11.2020 21:28 11,5 C 10,6 C 10,0 C 90 % 1026,7 hPa 0,0 l/m 0 min 0 min 0 W/m 16,1 km/h (3 Bft) 100,00 %
17.11.2020 21:30 11,5 C 10,6 C 10,0 C 90 % 1026,6 hPa 0,0 l/m 0 min 0 min 0 W/m 25,7 km/h (4 Bft) 100,00 %
17.11.2020 21:32 11,4 C 10,6 C 10,0 C 90 % 1026,7 hPa 0,0 l/m 0 min 0 min 0 W/m 16,1 km/h (3 Bft) 95,74 %
17.11.2020 21:34 11,4 C 10,6 C 10,0 C 90 % 1026,6 hPa 0,0 l/m 0 min 0 min 0 W/m 16,1 km/h (3 Bft) 100,00 %
17.11.2020 21:36 11,4 C 10,6 C 10,0 C 90 % 1026,6 hPa 0,0 l/m 0 min 0 min 0 W/m 16,1 km/h (3 Bft) 100,00 %
17.11.2020 21:38 11,4 C 10,6 C 10,0 C 90 % 1026,7 hPa 0,0 l/m 0 min 0 min 0 W/m 6,4 km/h (2 Bft) 100,00 %
17.11.2020 21:40 11,4 C 10,6 C 10,0 C 90 % 1026,6 hPa 0,0 l/m 0 min 0 min 0 W/m 12,9 km/h (3 Bft) 100,00 %
17.11.2020 21:42 11,4 C 10,6 C 10,0 C 90 % 1026,6 hPa 0,0 l/m 0 min 0 min 0 W/m 3,2 km/h (1 Bft) 97,87 %
17.11.2020 21:44 11,4 C 10,6 C 10,0 C 90 % 1026,6 hPa 0,0 l/m 0 min 0 min 0 W/m 12,9 km/h (3 Bft) 100,00 %
17.11.2020 21:46 11,4 C 10,6 C 10,0 C 90 % 1026,6 hPa 0,0 l/m 0 min 0 min 0 W/m 19,3 km/h (3 Bft) 97,14 %
17.11.2020 21:48 11,4 C 10,6 C 10,0 C 90 % 1026,5 hPa 0,0 l/m 0 min 0 min 0 W/m 12,9 km/h (3 Bft) 100,00 %
17.11.2020 21:50 11,4 C 10,6 C 10,0 C 90 % 1026,5 hPa 0,0 l/m 0 min 0 min 0 W/m 16,1 km/h (3 Bft) 100,00 %
17.11.2020 21:52 11,4 C 10,6 C 10,0 C 90 % 1026,6 hPa 0,0 l/m 0 min 0 min 0 W/m 12,9 km/h (3 Bft) 97,87 %
17.11.2020 21:54 11,4 C 10,6 C 10,0 C 91 % 1026,6 hPa 0,0 l/m 0 min 0 min 0 W/m 12,9 km/h (3 Bft) 97,87 %
17.11.2020 21:56 11,4 C 10,6 C 10,0 C 91 % 1026,5 hPa 0,0 l/m 0 min 0 min 0 W/m 19,3 km/h (3 Bft) 100,00 %
17.11.2020 21:58 11,4 C 10,6 C 10,0 C 91 % 1026,5 hPa 0,0 l/m 0 min 0 min 0 W/m 19,3 km/h (3 Bft) 97,83 %
17.11.2020 22:00 11,4 C 10,6 C 10,0 C 91 % 1026,5 hPa 0,0 l/m 0 min 0 min 0 W/m 16,1 km/h (3 Bft) 97,87 %
17.11.2020 22:02 11,4 C 10,6 C 10,0 C 91 % 1026,5 hPa 0,0 l/m 0 min 0 min 0 W/m 6,4 km/h (2 Bft) 95,74 %
17.11.2020 22:04 11,4 C 10,6 C 10,0 C 91 % 1026,6 hPa 0,0 l/m 0 min 0 min 0 W/m 6,4 km/h (2 Bft) 97,87 %
17.11.2020 22:06 11,4 C 10,6 C 10,0 C 91 % 1026,7 hPa 0,0 l/m 0 min 0 min 0 W/m 25,7 km/h (4 Bft) 97,87 %
17.11.2020 22:08 11,4 C 10,6 C 10,0 C 91 % 1026,7 hPa 0,0 l/m 0 min 0 min 0 W/m 19,3 km/h (3 Bft) 98,28 %
17.11.2020 22:10 11,4 C 10,6 C 10,0 C 91 % 1026,7 hPa 0,0 l/m 0 min 0 min 0 W/m 9,7 km/h (2 Bft) 97,87 %
17.11.2020 22:12 11,4 C 10,6 C 10,0 C 91 % 1026,6 hPa 0,0 l/m 0 min 0 min 0 W/m 12,9 km/h (3 Bft) 97,14 %
17.11.2020 22:14 11,4 C 10,6 C 10,0 C 91 % 1026,6 hPa 0,0 l/m 0 min 0 min 0 W/m 6,4 km/h (2 Bft) 97,87 %
17.11.2020 22:16 11,4 C 10,6 C 10,0 C 91 % 1026,7 hPa 0,0 l/m 0 min 0 min 0 W/m 0,0 km/h (0 Bft) 97,87 %
17.11.2020 22:18 11,4 C 10,6 C 10,0 C 91 % 1026,7 hPa 0,0 l/m 0 min 0 min 0 W/m 3,2 km/h (1 Bft) 97,87 %
17.11.2020 22:20 11,4 C 10,6 C 10,0 C 91 % 1026,7 hPa 0,0 l/m 0 min 0 min 0 W/m 3,2 km/h (1 Bft) 97,83 %
17.11.2020 22:22 11,4 C 10,6 C 10,0 C 91 % 1026,8 hPa 0,0 l/m 0 min 0 min 0 W/m 3,2 km/h (1 Bft) 97,87 %
17.11.2020 22:24 11,4 C 10,6 C 10,0 C 91 % 1026,7 hPa 0,0 l/m 0 min 0 min 0 W/m 12,9 km/h (3 Bft) 95,74 %
17.11.2020 22:26 11,4 C 10,6 C 10,0 C 91 % 1026,7 hPa 0,0 l/m 0 min 0 min 0 W/m 3,2 km/h (1 Bft) 95,74 %
17.11.2020 22:28 11,4 C 10,6 C 10,0 C 91 % 1026,7 hPa 0,0 l/m 0 min 0 min 0 W/m 3,2 km/h (1 Bft) 97,87 %
17.11.2020 22:30 11,4 C 10,6 C 10,0 C 91 % 1026,7 hPa 0,0 l/m 0 min 0 min 0 W/m 6,4 km/h (2 Bft) 97,87 %
17.11.2020 22:32 11,4 C 10,6 C 10,0 C 91 % 1026,7 hPa 0,0 l/m 0 min 0 min 0 W/m 3,2 km/h (1 Bft) 97,83 %
17.11.2020 22:34 11,4 C 10,6 C 10,0 C 91 % 1026,7 hPa 0,0 l/m 0 min 0 min 0 W/m 12,9 km/h (3 Bft) 97,87 %
17.11.2020 22:36 11,4 C 10,6 C 10,0 C 91 % 1026,7 hPa 0,0 l/m 0 min 0 min 0 W/m 6,4 km/h (2 Bft) 95,74 %
17.11.2020 22:38 11,4 C 10,6 C 10,0 C 91 % 1026,8 hPa 0,0 l/m 0 min 0 min 0 W/m 3,2 km/h (1 Bft) 96,61 %
17.11.2020 22:40 11,4 C 10,6 C 10,0 C 91 % 1026,7 hPa 0,0 l/m 0 min 0 min 0 W/m 12,9 km/h (3 Bft) 97,14 %
17.11.2020 22:42 11,4 C 10,6 C 10,0 C 91 % 1026,7 hPa 0,0 l/m 0 min 0 min 0 W/m 9,7 km/h (2 Bft) 95,74 %
17.11.2020 22:44 11,4 C 10,6 C 10,0 C 91 % 1026,7 hPa 0,0 l/m 0 min 0 min 0 W/m 3,2 km/h (1 Bft) 95,65 %
17.11.2020 22:46 11,4 C 10,6 C 10,0 C 91 % 1026,7 hPa 0,0 l/m 0 min 0 min 0 W/m 16,1 km/h (3 Bft) 95,74 %
17.11.2020 22:48 11,4 C 10,6 C 10,0 C 91 % 1026,7 hPa 0,0 l/m 0 min 0 min 0 W/m 6,4 km/h (2 Bft) 95,74 %
17.11.2020 22:50 11,4 C 10,6 C 10,0 C 91 % 1026,7 hPa 0,0 l/m 0 min 0 min 0 W/m 6,4 km/h (2 Bft) 93,62 %
17.11.2020 22:52 11,4 C 10,6 C 10,0 C 91 % 1026,7 hPa 0,0 l/m 0 min 0 min 0 W/m 0,0 km/h (0 Bft) 95,74 %
17.11.2020 22:54 11,4 C 10,6 C 10,0 C 91 % 1026,7 hPa 0,0 l/m 0 min 0 min 0 W/m 3,2 km/h (1 Bft) 93,62 %
17.11.2020 22:56 11,4 C 10,6 C 10,0 C 91 % 1026,7 hPa 0,0 l/m 0 min 0 min 0 W/m 0,0 km/h (0 Bft) 93,48 %
17.11.2020 22:58 11,4 C 10,6 C 10,0 C 91 % 1026,7 hPa 0,0 l/m 0 min 0 min 0 W/m 3,2 km/h (1 Bft) 95,74 %
17.11.2020 23:00 11,4 C 10,6 C 10,0 C 91 % 1026,8 hPa 0,0 l/m 0 min 0 min 0 W/m 12,9 km/h (3 Bft) 95,74 %
17.11.2020 23:02 11,3 C 10,6 C 10,0 C 91 % 1026,7 hPa 0,0 l/m 0 min 0 min 0 W/m 6,4 km/h (2 Bft) 95,74 %
17.11.2020 23:04 11,3 C 10,6 C 10,0 C 91 % 1026,7 hPa 0,0 l/m 0 min 0 min 0 W/m 6,4 km/h (2 Bft) 97,87 %
17.11.2020 23:06 11,4 C 10,6 C 10,0 C 91 % 1026,7 hPa 0,0 l/m 0 min 0 min 0 W/m 19,3 km/h (3 Bft) 95,74 %
17.11.2020 23:08 11,3 C 10,6 C 10,0 C 91 % 1026,7 hPa 0,0 l/m 0 min 0 min 0 W/m 3,2 km/h (1 Bft) 96,55 %
17.11.2020 23:10 11,3 C 10,6 C 10,0 C 91 % 1026,7 hPa 0,0 l/m 0 min 0 min 0 W/m 12,9 km/h (3 Bft) 100,00 %
17.11.2020 23:12 11,3 C 10,6 C 10,0 C 91 % 1026,7 hPa 0,0 l/m 0 min 0 min 0 W/m 6,4 km/h (2 Bft) 93,62 %
17.11.2020 23:14 11,3 C 10,6 C 10,0 C 91 % 1026,7 hPa 0,0 l/m 0 min 0 min 0 W/m 3,2 km/h (1 Bft) 95,74 %
17.11.2020 23:16 11,3 C 10,6 C 10,0 C 91 % 1026,7 hPa 0,0 l/m 0 min 0 min 0 W/m 3,2 km/h (1 Bft) 91,49 %
17.11.2020 23:18 11,3 C 10,6 C 10,0 C 91 % 1026,7 hPa 0,0 l/m 0 min 0 min 0 W/m 0,0 km/h (0 Bft) 95,74 %
17.11.2020 23:20 11,3 C 10,6 C 10,0 C 91 % 1026,7 hPa 0,0 l/m 0 min 0 min 0 W/m 6,4 km/h (2 Bft) 94,74 %
17.11.2020 23:22 11,3 C 10,6 C 10,0 C 91 % 1026,8 hPa 0,0 l/m 0 min 0 min 0 W/m 12,9 km/h (3 Bft) 95,65 %
17.11.2020 23:24 11,3 C 10,6 C 10,0 C 91 % 1026,8 hPa 0,0 l/m 0 min 0 min 0 W/m 6,4 km/h (2 Bft) 93,62 %
17.11.2020 23:26 11,3 C 10,6 C 10,0 C 91 % 1026,8 hPa 0,0 l/m 0 min 0 min 0 W/m 3,2 km/h (1 Bft) 97,87 %
17.11.2020 23:28 11,3 C 10,6 C 10,0 C 91 % 1026,7 hPa 0,0 l/m 0 min 0 min 0 W/m 3,2 km/h (1 Bft) 97,87 %
17.11.2020 23:30 11,3 C 10,6 C 10,0 C 91 % 1026,8 hPa 0,0 l/m 0 min 0 min 0 W/m 6,4 km/h (2 Bft) 97,87 %
17.11.2020 23:32 11,3 C 10,6 C 10,0 C 91 % 1026,7 hPa 0,0 l/m 0 min 0 min 0 W/m 3,2 km/h (1 Bft) 97,83 %
17.11.2020 23:34 11,3 C 10,6 C 10,0 C 91 % 1026,7 hPa 0,0 l/m 0 min 0 min 0 W/m 3,2 km/h (1 Bft) 97,87 %
17.11.2020 23:36 11,3 C 10,6 C 10,0 C 91 % 1026,7 hPa 0,0 l/m 0 min 0 min 0 W/m 6,4 km/h (2 Bft) 95,74 %
17.11.2020 23:38 11,3 C 10,6 C 10,0 C 91 % 1026,6 hPa 0,0 l/m 0 min 0 min 0 W/m 12,9 km/h (3 Bft) 97,87 %
17.11.2020 23:40 11,3 C 10,6 C 10,0 C 91 % 1026,6 hPa 0,0 l/m 0 min 0 min 0 W/m 12,9 km/h (3 Bft) 97,87 %
17.11.2020 23:42 11,3 C 10,6 C 10,0 C 91 % 1026,6 hPa 0,0 l/m 0 min 0 min 0 W/m 6,4 km/h (2 Bft) 97,87 %
17.11.2020 23:44 11,3 C 10,6 C 10,0 C 91 % 1026,6 hPa 0,0 l/m 0 min 0 min 0 W/m 12,9 km/h (3 Bft) 97,83 %
17.11.2020 23:46 11,3 C 10,6 C 10,0 C 91 % 1026,6 hPa 0,0 l/m 0 min 0 min 0 W/m 3,2 km/h (1 Bft) 97,87 %
17.11.2020 23:48 11,3 C 10,6 C 10,0 C 91 % 1026,6 hPa 0,0 l/m 0 min 0 min 0 W/m 6,4 km/h (2 Bft) 97,87 %
17.11.2020 23:50 11,3 C 10,6 C 10,0 C 91 % 1026,6 hPa 0,0 l/m 0 min 0 min 0 W/m 6,4 km/h (2 Bft) 95,74 %
17.11.2020 23:52 11,3 C 10,6 C 10,0 C 91 % 1026,5 hPa 0,0 l/m 0 min 0 min 0 W/m 6,4 km/h (2 Bft) 95,74 %
17.11.2020 23:54 11,3 C 10,6 C 10,0 C 90 % 1026,6 hPa 0,0 l/m 0 min 0 min 0 W/m 3,2 km/h (1 Bft) 97,87 %
17.11.2020 23:56 11,3 C 10,6 C 10,0 C 90 % 1026,5 hPa 0,0 l/m 0 min 0 min 0 W/m 12,9 km/h (3 Bft) 97,83 %
17.11.2020 23:58 11,3 C 10,6 C 10,0 C 90 % 1026,5 hPa 0,0 l/m 0 min 0 min 0 W/m 12,9 km/h (3 Bft) 95,74 %
_ Min-Zeit 00:00 00:00 00:00 16:38 03:50 - - - - 02:28 01:14
Minimum _ 9,8 C 9,4 C 8,9 C 86 % 1021,4 hPa - - - - 0,0 km/h (0 Bft) 44,74 %
_ Max-Zeit 13:36 11:06 11:16 02:22 22:22 00:00 00:00 04:50 10:38 05:26 00:04
Maximum _ 12,6 C 12,2 C 11,7 C 94 % 1026,8 hPa 0,0 l/m 0 min 2 min 87 W/m 57,9 km/h
S-SO (7 Bft)
100,00 %
Durchschnitt _ 11,5 C 10,9 C 10,2 C 90 % 1024,2 hPa #0,0 l/m #0 min. #20 min. 34 W/m 22,8 km/h (4 Bft) 97,37 %
© 2020 W. Hausmann